Multibeam Report for AT27B


Ship Name: Atlantis
Chief Scientist: Plueddemann, Albert
Woods Hole Oceanographic Institution
Source Organization: UNOLS R2R
Start Date: 2015-05-07
End Date: 2015-05-14


View ISO Metadata

Visit the full NCEI Bathymetry Viewer


Multibeam Bathymetry

Cruise Details

Project: Ocean Observatories Initiative (OOI): Pioneer Array
Instrument: Kongsberg EM122

Data Quality

Number of Files: 1170
Number of Records: 885586
BATHYMETRY DATA Quantity Percentage
Number of Beams 381582576 100%
Number of Good Beams 370146134 97.0%
Number of Zero Beams 0 0%
Number of Flagged Beams 11436442 3.0%

Navigation Totals

Total Time: 73.247 hours
Total Track Length: 1072.8722 km
Average Speed: 14.647 km/hr (7.9088 knots)

Cruise Bounds

Northern Extent: 41.26612
Southern Extent: 39.921513
Western Extent: -70.9218
Eastern Extent: -70.33772

Limits

Minimum Sonar Depth 2.4733 Maximum Sonar Depth 8.4928
Minimum Altitude 20.9706 Maximum Altitude 1075.972
Minimum Depth 22.9147 Maximum Depth 1148.7157

File Information

Full Resolution Bathymetry as collected (raw): 1167

Files File Size Description
0000_20150506_185642_Atlantis.all.mb58.gz 32.50MB Kongsberg multibeam vendor format
0000_20150508_034048_Atlantis.all.mb58.gz 15.74MB Kongsberg multibeam vendor format
0000_20150510_045627_Atlantis.all.mb58.gz 19.57MB Kongsberg multibeam vendor format
0000_20150511_021626_Atlantis.all.mb58.gz 49.70MB Kongsberg multibeam vendor format
0000_20150512_023319_Atlantis.all.mb58.gz 38.27MB Kongsberg multibeam vendor format
0000_20150513_003822_Atlantis.all.mb58.gz 211.19MB Kongsberg multibeam vendor format
0000_20150513_163324_Atlantis.all.mb58.gz 39.00MB Kongsberg multibeam vendor format
0000_20150513_165124_Atlantis.all.mb58.gz 0.67MB Kongsberg multibeam vendor format
0000_20150513_193115_Atlantis.all.mb58.gz 6.49MB Kongsberg multibeam vendor format
0000_20150514_021148_Atlantis.all.mb58.gz 15.12MB Kongsberg multibeam vendor format
0001_20150506_190020_Atlantis.all.mb58.gz 22.04MB Kongsberg multibeam vendor format
0001_20150508_034400_Atlantis.all.mb58.gz 18.06MB Kongsberg multibeam vendor format
0001_20150510_050521_Atlantis.all.mb58.gz 24.86MB Kongsberg multibeam vendor format
0001_20150511_023706_Atlantis.all.mb58.gz 15.89MB Kongsberg multibeam vendor format
0001_20150512_024036_Atlantis.all.mb58.gz 50.70MB Kongsberg multibeam vendor format
0001_20150513_012119_Atlantis.all.mb58.gz 54.45MB Kongsberg multibeam vendor format
0001_20150513_164050_Atlantis.all.mb58.gz 49.94MB Kongsberg multibeam vendor format
0001_20150513_165241_Atlantis.all.mb58.gz 6.40MB Kongsberg multibeam vendor format
0001_20150513_193229_Atlantis.all.mb58.gz 1.42MB Kongsberg multibeam vendor format
0001_20150514_021535_Atlantis.all.mb58.gz 30.08MB Kongsberg multibeam vendor format
0002_20150506_190249_Atlantis.all.mb58.gz 47.63MB Kongsberg multibeam vendor format
0002_20150508_034740_Atlantis.all.mb58.gz 24.99MB Kongsberg multibeam vendor format
0002_20150510_051505_Atlantis.all.mb58.gz 35.98MB Kongsberg multibeam vendor format
0002_20150511_024217_Atlantis.all.mb58.gz 33.89MB Kongsberg multibeam vendor format
0002_20150512_025009_Atlantis.all.mb58.gz 3.29MB Kongsberg multibeam vendor format
0002_20150513_013144_Atlantis.all.mb58.gz 2.29MB Kongsberg multibeam vendor format
0002_20150513_165354_Atlantis.all.mb58.gz 3.07MB Kongsberg multibeam vendor format
0002_20150513_193438_Atlantis.all.mb58.gz 39.69MB Kongsberg multibeam vendor format
0002_20150514_022247_Atlantis.all.mb58.gz 1.21MB Kongsberg multibeam vendor format
0003_20150506_190809_Atlantis.all.mb58.gz 70.26MB Kongsberg multibeam vendor format
0003_20150508_035240_Atlantis.all.mb58.gz 17.54MB Kongsberg multibeam vendor format
0003_20150510_052600_Atlantis.all.mb58.gz 19.90MB Kongsberg multibeam vendor format
0003_20150511_025110_Atlantis.all.mb58.gz 9.88MB Kongsberg multibeam vendor format
0003_20150512_025046_Atlantis.all.mb58.gz 4.13MB Kongsberg multibeam vendor format
0003_20150513_013210_Atlantis.all.mb58.gz 4.05MB Kongsberg multibeam vendor format
0003_20150513_165429_Atlantis.all.mb58.gz 42.82MB Kongsberg multibeam vendor format
0003_20150513_194213_Atlantis.all.mb58.gz 22.60MB Kongsberg multibeam vendor format
0003_20150514_022303_Atlantis.all.mb58.gz 2.75MB Kongsberg multibeam vendor format
0004_20150506_191602_Atlantis.all.mb58.gz 20.53MB Kongsberg multibeam vendor format
0004_20150508_035609_Atlantis.all.mb58.gz 14.15MB Kongsberg multibeam vendor format
0004_20150510_053039_Atlantis.all.mb58.gz 4.52MB Kongsberg multibeam vendor format
0004_20150511_025318_Atlantis.all.mb58.gz 65.50MB Kongsberg multibeam vendor format
0004_20150512_025133_Atlantis.all.mb58.gz 24.83MB Kongsberg multibeam vendor format
0004_20150513_013257_Atlantis.all.mb58.gz 5.77MB Kongsberg multibeam vendor format
0004_20150513_170428_Atlantis.all.mb58.gz 1.09MB Kongsberg multibeam vendor format
0004_20150513_194631_Atlantis.all.mb58.gz 76.76MB Kongsberg multibeam vendor format
0004_20150514_022340_Atlantis.all.mb58.gz 6.81MB Kongsberg multibeam vendor format
0005_20150506_191820_Atlantis.all.mb58.gz 43.13MB Kongsberg multibeam vendor format
0005_20150508_035857_Atlantis.all.mb58.gz 11.69MB Kongsberg multibeam vendor format
0005_20150510_053136_Atlantis.all.mb58.gz 14.38MB Kongsberg multibeam vendor format
0005_20150511_030645_Atlantis.all.mb58.gz 12.21MB Kongsberg multibeam vendor format
0005_20150512_025613_Atlantis.all.mb58.gz 9.58MB Kongsberg multibeam vendor format
0005_20150513_013404_Atlantis.all.mb58.gz 1.37MB Kongsberg multibeam vendor format
0005_20150513_170441_Atlantis.all.mb58.gz 8.93MB Kongsberg multibeam vendor format
0005_20150513_200112_Atlantis.all.mb58.gz 74.96MB Kongsberg multibeam vendor format
0005_20150514_022507_Atlantis.all.mb58.gz 4.64MB Kongsberg multibeam vendor format
0006_20150506_192310_Atlantis.all.mb58.gz 79.34MB Kongsberg multibeam vendor format
0006_20150508_040116_Atlantis.all.mb58.gz 4.79MB Kongsberg multibeam vendor format
0006_20150510_053435_Atlantis.all.mb58.gz 4.56MB Kongsberg multibeam vendor format
0006_20150511_030913_Atlantis.all.mb58.gz 4.67MB Kongsberg multibeam vendor format
0006_20150512_025800_Atlantis.all.mb58.gz 12.21MB Kongsberg multibeam vendor format
0006_20150513_013420_Atlantis.all.mb58.gz 1.45MB Kongsberg multibeam vendor format
0006_20150513_170623_Atlantis.all.mb58.gz 68.10MB Kongsberg multibeam vendor format
0006_20150513_201531_Atlantis.all.mb58.gz 80.15MB Kongsberg multibeam vendor format
0006_20150514_022604_Atlantis.all.mb58.gz 18.18MB Kongsberg multibeam vendor format
0007_20150506_193203_Atlantis.all.mb58.gz 44.66MB Kongsberg multibeam vendor format
0007_20150508_040212_Atlantis.all.mb58.gz 1.36MB Kongsberg multibeam vendor format
0007_20150510_053532_Atlantis.all.mb58.gz 1.32MB Kongsberg multibeam vendor format
0007_20150511_031010_Atlantis.all.mb58.gz 3.06MB Kongsberg multibeam vendor format
0007_20150512_030019_Atlantis.all.mb58.gz 1.44MB Kongsberg multibeam vendor format
0007_20150513_013437_Atlantis.all.mb58.gz 1.44MB Kongsberg multibeam vendor format
0007_20150513_171924_Atlantis.all.mb58.gz 179.36MB Kongsberg multibeam vendor format
0007_20150513_203050_Atlantis.all.mb58.gz 86.41MB Kongsberg multibeam vendor format
0007_20150514_022933_Atlantis.all.mb58.gz 7.60MB Kongsberg multibeam vendor format
0008_20150506_193704_Atlantis.all.mb58.gz 60.64MB Kongsberg multibeam vendor format
0008_20150508_040229_Atlantis.all.mb58.gz 1.40MB Kongsberg multibeam vendor format
0008_20150510_053548_Atlantis.all.mb58.gz 2.90MB Kongsberg multibeam vendor format
0008_20150511_031047_Atlantis.all.mb58.gz 7.21MB Kongsberg multibeam vendor format
0008_20150512_030035_Atlantis.all.mb58.gz 3.18MB Kongsberg multibeam vendor format
0008_20150513_013453_Atlantis.all.mb58.gz 2.29MB Kongsberg multibeam vendor format
0008_20150513_175339_Atlantis.all.mb58.gz 64.85MB Kongsberg multibeam vendor format
0008_20150513_204720_Atlantis.all.mb58.gz 85.59MB Kongsberg multibeam vendor format
0008_20150514_023101_Atlantis.all.mb58.gz 4.90MB Kongsberg multibeam vendor format
0009_20150506_194355_Atlantis.all.mb58.gz 96.77MB Kongsberg multibeam vendor format
0009_20150508_040245_Atlantis.all.mb58.gz 1.40MB Kongsberg multibeam vendor format
0009_20150510_053625_Atlantis.all.mb58.gz 1.33MB Kongsberg multibeam vendor format
0009_20150511_031214_Atlantis.all.mb58.gz 2.21MB Kongsberg multibeam vendor format
0009_20150512_030112_Atlantis.all.mb58.gz 12.05MB Kongsberg multibeam vendor format
0009_20150513_013519_Atlantis.all.mb58.gz 2.10MB Kongsberg multibeam vendor format
0009_20150513_180601_Atlantis.all.mb58.gz 92.03MB Kongsberg multibeam vendor format
0009_20150513_210342_Atlantis.all.mb58.gz 76.13MB Kongsberg multibeam vendor format
0009_20150514_023157_Atlantis.all.mb58.gz 4.98MB Kongsberg multibeam vendor format
0010_20150506_195541_Atlantis.all.mb58.gz 23.39MB Kongsberg multibeam vendor format
0010_20150508_040302_Atlantis.all.mb58.gz 2.21MB Kongsberg multibeam vendor format
0010_20150510_053641_Atlantis.all.mb58.gz 2.10MB Kongsberg multibeam vendor format
0010_20150511_031241_Atlantis.all.mb58.gz 2.16MB Kongsberg multibeam vendor format
0010_20150512_030330_Atlantis.all.mb58.gz 1.40MB Kongsberg multibeam vendor format
0010_20150513_013557_Atlantis.all.mb58.gz 2.38MB Kongsberg multibeam vendor format
0010_20150513_182335_Atlantis.all.mb58.gz 46.33MB Kongsberg multibeam vendor format
0010_20150513_211814_Atlantis.all.mb58.gz 82.60MB Kongsberg multibeam vendor format
0010_20150514_023254_Atlantis.all.mb58.gz 53.43MB Kongsberg multibeam vendor format
0011_20150506_195830_Atlantis.all.mb58.gz 29.32MB Kongsberg multibeam vendor format
0011_20150508_040328_Atlantis.all.mb58.gz 18.62MB Kongsberg multibeam vendor format
0011_20150510_053708_Atlantis.all.mb58.gz 2.10MB Kongsberg multibeam vendor format
0011_20150511_031307_Atlantis.all.mb58.gz 2.21MB Kongsberg multibeam vendor format
0011_20150512_030346_Atlantis.all.mb58.gz 3.22MB Kongsberg multibeam vendor format
0011_20150513_013703_Atlantis.all.mb58.gz 73.54MB Kongsberg multibeam vendor format
0011_20150513_183226_Atlantis.all.mb58.gz 26.27MB Kongsberg multibeam vendor format
0011_20150513_213401_Atlantis.all.mb58.gz 154.68MB Kongsberg multibeam vendor format
0011_20150514_024259_Atlantis.all.mb58.gz 22.93MB Kongsberg multibeam vendor format
0012_20150506_200159_Atlantis.all.mb58.gz 45.63MB Kongsberg multibeam vendor format
0012_20150508_040707_Atlantis.all.mb58.gz 3.10MB Kongsberg multibeam vendor format
0012_20150510_053734_Atlantis.all.mb58.gz 4.53MB Kongsberg multibeam vendor format
0012_20150511_031334_Atlantis.all.mb58.gz 1.32MB Kongsberg multibeam vendor format
0012_20150512_030423_Atlantis.all.mb58.gz 9.35MB Kongsberg multibeam vendor format
0012_20150513_015121_Atlantis.all.mb58.gz 51.88MB Kongsberg multibeam vendor format
0012_20150513_183727_Atlantis.all.mb58.gz 258.2KB Kongsberg multibeam vendor format
0012_20150513_220335_Atlantis.all.mb58.gz 145.93MB Kongsberg multibeam vendor format
0012_20150514_024718_Atlantis.all.mb58.gz 11.29MB Kongsberg multibeam vendor format
0013_20150506_200719_Atlantis.all.mb58.gz 111.50MB Kongsberg multibeam vendor format
0013_20150508_040744_Atlantis.all.mb58.gz 2.29MB Kongsberg multibeam vendor format
0013_20150510_053831_Atlantis.all.mb58.gz 1.28MB Kongsberg multibeam vendor format
0013_20150511_031350_Atlantis.all.mb58.gz 2.21MB Kongsberg multibeam vendor format
0013_20150512_030610_Atlantis.all.mb58.gz 11.07MB Kongsberg multibeam vendor format
0013_20150513_020247_Atlantis.all.mb58.gz 47.49MB Kongsberg multibeam vendor format
0013_20150513_183730_Atlantis.all.mb58.gz 43.30MB Kongsberg multibeam vendor format
0013_20150513_223127_Atlantis.all.mb58.gz 62.39MB Kongsberg multibeam vendor format
0013_20150514_024926_Atlantis.all.mb58.gz 45.49MB Kongsberg multibeam vendor format
0014_20150506_202329_Atlantis.all.mb58.gz 222.60MB Kongsberg multibeam vendor format
0014_20150508_040811_Atlantis.all.mb58.gz 27.38MB Kongsberg multibeam vendor format
0014_20150510_053847_Atlantis.all.mb58.gz 1.33MB Kongsberg multibeam vendor format
0014_20150511_031417_Atlantis.all.mb58.gz 1.32MB Kongsberg multibeam vendor format
0014_20150512_030818_Atlantis.all.mb58.gz 2.33MB Kongsberg multibeam vendor format
0014_20150513_021312_Atlantis.all.mb58.gz 58.88MB Kongsberg multibeam vendor format
0014_20150513_184547_Atlantis.all.mb58.gz 21.61MB Kongsberg multibeam vendor format
0014_20150513_224323_Atlantis.all.mb58.gz 11.90MB Kongsberg multibeam vendor format
0014_20150514_025800_Atlantis.all.mb58.gz 23.91MB Kongsberg multibeam vendor format
0015_20150506_210025_Atlantis.all.mb58.gz 310.08MB Kongsberg multibeam vendor format
0015_20150508_041331_Atlantis.all.mb58.gz 4.07MB Kongsberg multibeam vendor format
0015_20150510_053904_Atlantis.all.mb58.gz 1.28MB Kongsberg multibeam vendor format
0015_20150511_031433_Atlantis.all.mb58.gz 2.21MB Kongsberg multibeam vendor format
0015_20150512_030845_Atlantis.all.mb58.gz 1.40MB Kongsberg multibeam vendor format
0015_20150513_022538_Atlantis.all.mb58.gz 34.50MB Kongsberg multibeam vendor format
0015_20150513_184953_Atlantis.all.mb58.gz 49.04MB Kongsberg multibeam vendor format
0015_20150514_030229_Atlantis.all.mb58.gz 27.48MB Kongsberg multibeam vendor format
0016_20150506_220025_Atlantis.all.mb58.gz 158.05MB Kongsberg multibeam vendor format
0016_20150508_041418_Atlantis.all.mb58.gz 11.12MB Kongsberg multibeam vendor format
0016_20150510_053920_Atlantis.all.mb58.gz 2.94MB Kongsberg multibeam vendor format
0016_20150511_031459_Atlantis.all.mb58.gz 1.36MB Kongsberg multibeam vendor format
0016_20150512_030901_Atlantis.all.mb58.gz 1.44MB Kongsberg multibeam vendor format
0016_20150513_023240_Atlantis.all.mb58.gz 7.93MB Kongsberg multibeam vendor format
0016_20150513_185915_Atlantis.all.mb58.gz 19.35MB Kongsberg multibeam vendor format
0016_20150514_030740_Atlantis.all.mb58.gz 25.60MB Kongsberg multibeam vendor format
0017_20150506_223056_Atlantis.all.mb58.gz 70.63MB Kongsberg multibeam vendor format
0017_20150508_041626_Atlantis.all.mb58.gz 6.77MB Kongsberg multibeam vendor format
0017_20150510_053956_Atlantis.all.mb58.gz 11.15MB Kongsberg multibeam vendor format
0017_20150511_031516_Atlantis.all.mb58.gz 5.48MB Kongsberg multibeam vendor format
0017_20150512_030917_Atlantis.all.mb58.gz 1.44MB Kongsberg multibeam vendor format
0017_20150513_023417_Atlantis.all.mb58.gz 3.80MB Kongsberg multibeam vendor format
0017_20150513_190257_Atlantis.all.mb58.gz 50.21MB Kongsberg multibeam vendor format
0017_20150514_031229_Atlantis.all.mb58.gz 91.37MB Kongsberg multibeam vendor format
0018_20150506_224434_Atlantis.all.mb58.gz 42.65MB Kongsberg multibeam vendor format
0018_20150508_041743_Atlantis.all.mb58.gz 19.31MB Kongsberg multibeam vendor format
0018_20150510_054214_Atlantis.all.mb58.gz 7.06MB Kongsberg multibeam vendor format
0018_20150511_031623_Atlantis.all.mb58.gz 3.06MB Kongsberg multibeam vendor format
0018_20150512_030934_Atlantis.all.mb58.gz 2.28MB Kongsberg multibeam vendor format
0018_20150513_023504_Atlantis.all.mb58.gz 3.71MB Kongsberg multibeam vendor format
0018_20150513_191232_Atlantis.all.mb58.gz 1.63MB Kongsberg multibeam vendor format
0018_20150514_032950_Atlantis.all.mb58.gz 9.44MB Kongsberg multibeam vendor format
0019_20150506_225246_Atlantis.all.mb58.gz 197.32MB Kongsberg multibeam vendor format
0019_20150508_042122_Atlantis.all.mb58.gz 2.37MB Kongsberg multibeam vendor format
0019_20150510_054342_Atlantis.all.mb58.gz 5.45MB Kongsberg multibeam vendor format
0019_20150511_031700_Atlantis.all.mb58.gz 2.17MB Kongsberg multibeam vendor format
0019_20150512_031000_Atlantis.all.mb58.gz 8.52MB Kongsberg multibeam vendor format
0019_20150513_023551_Atlantis.all.mb58.gz 5.24MB Kongsberg multibeam vendor format
0019_20150513_191301_Atlantis.all.mb58.gz 0.67MB Kongsberg multibeam vendor format
0019_20150514_033138_Atlantis.all.mb58.gz 6.76MB Kongsberg multibeam vendor format
0020_20150506_233034_Atlantis.all.mb58.gz 34.11MB Kongsberg multibeam vendor format
0020_20150508_042149_Atlantis.all.mb58.gz 61.38MB Kongsberg multibeam vendor format
0020_20150510_054449_Atlantis.all.mb58.gz 10.34MB Kongsberg multibeam vendor format
0020_20150511_031726_Atlantis.all.mb58.gz 2.17MB Kongsberg multibeam vendor format
0020_20150512_031138_Atlantis.all.mb58.gz 4.90MB Kongsberg multibeam vendor format
0020_20150513_023657_Atlantis.all.mb58.gz 1.33MB Kongsberg multibeam vendor format
0020_20150514_033255_Atlantis.all.mb58.gz 7.67MB Kongsberg multibeam vendor format
0021_20150506_233705_Atlantis.all.mb58.gz 62.61MB Kongsberg multibeam vendor format
0021_20150508_043324_Atlantis.all.mb58.gz 87.38MB Kongsberg multibeam vendor format
0021_20150510_054657_Atlantis.all.mb58.gz 4.64MB Kongsberg multibeam vendor format
0021_20150511_031752_Atlantis.all.mb58.gz 5.53MB Kongsberg multibeam vendor format
0021_20150512_031234_Atlantis.all.mb58.gz 2.32MB Kongsberg multibeam vendor format
0021_20150513_023714_Atlantis.all.mb58.gz 1.33MB Kongsberg multibeam vendor format
0021_20150514_033422_Atlantis.all.mb58.gz 12.09MB Kongsberg multibeam vendor format
0022_20150506_234901_Atlantis.all.mb58.gz 58.11MB Kongsberg multibeam vendor format
0022_20150508_045004_Atlantis.all.mb58.gz 1.46MB Kongsberg multibeam vendor format
0022_20150510_054754_Atlantis.all.mb58.gz 27.09MB Kongsberg multibeam vendor format
0022_20150511_031859_Atlantis.all.mb58.gz 7.19MB Kongsberg multibeam vendor format
0022_20150512_031301_Atlantis.all.mb58.gz 2.28MB Kongsberg multibeam vendor format
0022_20150513_023730_Atlantis.all.mb58.gz 1.37MB Kongsberg multibeam vendor format
0022_20150514_033640_Atlantis.all.mb58.gz 141.37MB Kongsberg multibeam vendor format
0023_20150507_000007_Atlantis.all.mb58.gz 62.55MB Kongsberg multibeam vendor format
0023_20150508_045021_Atlantis.all.mb58.gz 1.42MB Kongsberg multibeam vendor format
0023_20150510_055324_Atlantis.all.mb58.gz 15.53MB Kongsberg multibeam vendor format
0023_20150511_032027_Atlantis.all.mb58.gz 11.32MB Kongsberg multibeam vendor format
0023_20150512_031327_Atlantis.all.mb58.gz 11.05MB Kongsberg multibeam vendor format
0023_20150513_023747_Atlantis.all.mb58.gz 2.99MB Kongsberg multibeam vendor format
0023_20150514_040339_Atlantis.all.mb58.gz 116.78MB Kongsberg multibeam vendor format
0024_20150507_001203_Atlantis.all.mb58.gz 76.22MB Kongsberg multibeam vendor format
0024_20150508_045037_Atlantis.all.mb58.gz 7.67MB Kongsberg multibeam vendor format
0024_20150510_055633_Atlantis.all.mb58.gz 6.41MB Kongsberg multibeam vendor format
0024_20150511_032244_Atlantis.all.mb58.gz 14.79MB Kongsberg multibeam vendor format
0024_20150512_031535_Atlantis.all.mb58.gz 3.17MB Kongsberg multibeam vendor format
0024_20150513_023823_Atlantis.all.mb58.gz 47.92MB Kongsberg multibeam vendor format
0024_20150514_042603_Atlantis.all.mb58.gz 37.46MB Kongsberg multibeam vendor format
0025_20150507_002631_Atlantis.all.mb58.gz 20.25MB Kongsberg multibeam vendor format
0025_20150508_045204_Atlantis.all.mb58.gz 3.20MB Kongsberg multibeam vendor format
0025_20150510_055750_Atlantis.all.mb58.gz 10.61MB Kongsberg multibeam vendor format
0025_20150511_032543_Atlantis.all.mb58.gz 3.02MB Kongsberg multibeam vendor format
0025_20150512_031612_Atlantis.all.mb58.gz 8.33MB Kongsberg multibeam vendor format
0025_20150513_024909_Atlantis.all.mb58.gz 20.19MB Kongsberg multibeam vendor format
0025_20150514_043315_Atlantis.all.mb58.gz 194.53MB Kongsberg multibeam vendor format
0026_20150507_003021_Atlantis.all.mb58.gz 23.86MB Kongsberg multibeam vendor format
0026_20150508_045241_Atlantis.all.mb58.gz 1.42MB Kongsberg multibeam vendor format
0026_20150510_055958_Atlantis.all.mb58.gz 2.98MB Kongsberg multibeam vendor format
0026_20150511_032620_Atlantis.all.mb58.gz 2.21MB Kongsberg multibeam vendor format
0026_20150512_031749_Atlantis.all.mb58.gz 16.07MB Kongsberg multibeam vendor format
0026_20150513_025520_Atlantis.all.mb58.gz 29.25MB Kongsberg multibeam vendor format
0026_20150514_051042_Atlantis.all.mb58.gz 310.12MB Kongsberg multibeam vendor format
0027_20150507_003450_Atlantis.all.mb58.gz 12.22MB Kongsberg multibeam vendor format
0027_20150508_045257_Atlantis.all.mb58.gz 2.33MB Kongsberg multibeam vendor format
0027_20150510_060034_Atlantis.all.mb58.gz 4.72MB Kongsberg multibeam vendor format
0027_20150511_032646_Atlantis.all.mb58.gz 7.23MB Kongsberg multibeam vendor format
0027_20150512_032058_Atlantis.all.mb58.gz 12.64MB Kongsberg multibeam vendor format
0027_20150513_030423_Atlantis.all.mb58.gz 6.55MB Kongsberg multibeam vendor format
0027_20150514_061042_Atlantis.all.mb58.gz 52.89MB Kongsberg multibeam vendor format
0028_20150507_003708_Atlantis.all.mb58.gz 10.42MB Kongsberg multibeam vendor format
0028_20150508_045324_Atlantis.all.mb58.gz 5.86MB Kongsberg multibeam vendor format
0028_20150510_060132_Atlantis.all.mb58.gz 3.02MB Kongsberg multibeam vendor format
0028_20150511_032814_Atlantis.all.mb58.gz 3.06MB Kongsberg multibeam vendor format
0028_20150512_032327_Atlantis.all.mb58.gz 9.14MB Kongsberg multibeam vendor format
0028_20150513_030632_Atlantis.all.mb58.gz 4.68MB Kongsberg multibeam vendor format
0028_20150514_062056_Atlantis.all.mb58.gz 76.39MB Kongsberg multibeam vendor format
0029_20150507_003906_Atlantis.all.mb58.gz 11.36MB Kongsberg multibeam vendor format
0029_20150508_045431_Atlantis.all.mb58.gz 31.54MB Kongsberg multibeam vendor format
0029_20150510_060208_Atlantis.all.mb58.gz 4.72MB Kongsberg multibeam vendor format
0029_20150511_032850_Atlantis.all.mb58.gz 3.06MB Kongsberg multibeam vendor format
0029_20150512_032514_Atlantis.all.mb58.gz 25.46MB Kongsberg multibeam vendor format
0029_20150513_030810_Atlantis.all.mb58.gz 7.88MB Kongsberg multibeam vendor format
0029_20150514_063545_Atlantis.all.mb58.gz 120.81MB Kongsberg multibeam vendor format
0030_20150507_004114_Atlantis.all.mb58.gz 9.55MB Kongsberg multibeam vendor format
0030_20150508_050032_Atlantis.all.mb58.gz 4.07MB Kongsberg multibeam vendor format
0030_20150510_060305_Atlantis.all.mb58.gz 13.05MB Kongsberg multibeam vendor format
0030_20150511_032927_Atlantis.all.mb58.gz 2.21MB Kongsberg multibeam vendor format
0030_20150512_033014_Atlantis.all.mb58.gz 33.49MB Kongsberg multibeam vendor format
0030_20150513_031059_Atlantis.all.mb58.gz 11.28MB Kongsberg multibeam vendor format
0030_20150514_065910_Atlantis.all.mb58.gz 90.26MB Kongsberg multibeam vendor format
0031_20150507_004302_Atlantis.all.mb58.gz 23.92MB Kongsberg multibeam vendor format
0031_20150508_050119_Atlantis.all.mb58.gz 18.23MB Kongsberg multibeam vendor format
0031_20150510_060543_Atlantis.all.mb58.gz 2.17MB Kongsberg multibeam vendor format
0031_20150511_032953_Atlantis.all.mb58.gz 9.88MB Kongsberg multibeam vendor format
0031_20150512_033656_Atlantis.all.mb58.gz 15.59MB Kongsberg multibeam vendor format
0031_20150513_031510_Atlantis.all.mb58.gz 7.50MB Kongsberg multibeam vendor format
0031_20150514_071641_Atlantis.all.mb58.gz 37.13MB Kongsberg multibeam vendor format
0032_20150507_004732_Atlantis.all.mb58.gz 10.49MB Kongsberg multibeam vendor format
0032_20150508_050448_Atlantis.all.mb58.gz 10.26MB Kongsberg multibeam vendor format
0032_20150510_060610_Atlantis.all.mb58.gz 3.02MB Kongsberg multibeam vendor format
0032_20150511_033151_Atlantis.all.mb58.gz 5.68MB Kongsberg multibeam vendor format
0032_20150512_034004_Atlantis.all.mb58.gz 2.21MB Kongsberg multibeam vendor format
0032_20150513_031759_Atlantis.all.mb58.gz 13.92MB Kongsberg multibeam vendor format
0032_20150514_072353_Atlantis.all.mb58.gz 7.48MB Kongsberg multibeam vendor format
0033_20150507_004930_Atlantis.all.mb58.gz 4.16MB Kongsberg multibeam vendor format
0033_20150508_050646_Atlantis.all.mb58.gz 10.30MB Kongsberg multibeam vendor format
0033_20150510_060646_Atlantis.all.mb58.gz 19.90MB Kongsberg multibeam vendor format
0033_20150511_033258_Atlantis.all.mb58.gz 13.23MB Kongsberg multibeam vendor format
0033_20150512_034031_Atlantis.all.mb58.gz 19.73MB Kongsberg multibeam vendor format
0033_20150513_032330_Atlantis.all.mb58.gz 25.67MB Kongsberg multibeam vendor format
0033_20150514_072520_Atlantis.all.mb58.gz 8.38MB Kongsberg multibeam vendor format
0034_20150507_005016_Atlantis.all.mb58.gz 24.93MB Kongsberg multibeam vendor format
0034_20150508_050844_Atlantis.all.mb58.gz 85.38MB Kongsberg multibeam vendor format
0034_20150510_061046_Atlantis.all.mb58.gz 7.27MB Kongsberg multibeam vendor format
0034_20150511_033536_Atlantis.all.mb58.gz 8.23MB Kongsberg multibeam vendor format
0034_20150512_034431_Atlantis.all.mb58.gz 27.89MB Kongsberg multibeam vendor format
0034_20150513_033446_Atlantis.all.mb58.gz 41.12MB Kongsberg multibeam vendor format
0034_20150514_072658_Atlantis.all.mb58.gz 9.24MB Kongsberg multibeam vendor format
0035_20150507_005456_Atlantis.all.mb58.gz 10.53MB Kongsberg multibeam vendor format
0035_20150508_052503_Atlantis.all.mb58.gz 4.94MB Kongsberg multibeam vendor format
0035_20150510_061213_Atlantis.all.mb58.gz 3.03MB Kongsberg multibeam vendor format
0035_20150511_033714_Atlantis.all.mb58.gz 15.08MB Kongsberg multibeam vendor format
0035_20150512_035011_Atlantis.all.mb58.gz 2.18MB Kongsberg multibeam vendor format
0035_20150513_035257_Atlantis.all.mb58.gz 19.13MB Kongsberg multibeam vendor format
0035_20150514_072845_Atlantis.all.mb58.gz 10.10MB Kongsberg multibeam vendor format
0036_20150507_005654_Atlantis.all.mb58.gz 5.06MB Kongsberg multibeam vendor format
0036_20150508_052600_Atlantis.all.mb58.gz 42.85MB Kongsberg multibeam vendor format
0036_20150510_061250_Atlantis.all.mb58.gz 14.06MB Kongsberg multibeam vendor format
0036_20150511_034013_Atlantis.all.mb58.gz 16.08MB Kongsberg multibeam vendor format
0036_20150512_035038_Atlantis.all.mb58.gz 1.32MB Kongsberg multibeam vendor format
0036_20150513_040009_Atlantis.all.mb58.gz 13.11MB Kongsberg multibeam vendor format
0036_20150514_073043_Atlantis.all.mb58.gz 10.95MB Kongsberg multibeam vendor format
0037_20150507_005751_Atlantis.all.mb58.gz 6.89MB Kongsberg multibeam vendor format
0037_20150508_053413_Atlantis.all.mb58.gz 11.98MB Kongsberg multibeam vendor format
0037_20150510_061538_Atlantis.all.mb58.gz 3.91MB Kongsberg multibeam vendor format
0037_20150511_034321_Atlantis.all.mb58.gz 4.87MB Kongsberg multibeam vendor format
0037_20150512_035054_Atlantis.all.mb58.gz 1.32MB Kongsberg multibeam vendor format
0037_20150513_040439_Atlantis.all.mb58.gz 0.84MB Kongsberg multibeam vendor format
0037_20150514_073251_Atlantis.all.mb58.gz 12.74MB Kongsberg multibeam vendor format
0038_20150507_005908_Atlantis.all.mb58.gz 48.39MB Kongsberg multibeam vendor format
0038_20150508_053631_Atlantis.all.mb58.gz 56.91MB Kongsberg multibeam vendor format
0038_20150510_061625_Atlantis.all.mb58.gz 3.10MB Kongsberg multibeam vendor format
0038_20150511_034418_Atlantis.all.mb58.gz 12.84MB Kongsberg multibeam vendor format
0038_20150512_035110_Atlantis.all.mb58.gz 1.36MB Kongsberg multibeam vendor format
0038_20150513_040456_Atlantis.all.mb58.gz 6.04MB Kongsberg multibeam vendor format
0038_20150514_073519_Atlantis.all.mb58.gz 14.41MB Kongsberg multibeam vendor format
0039_20150507_010812_Atlantis.all.mb58.gz 9.54MB Kongsberg multibeam vendor format
0039_20150508_054726_Atlantis.all.mb58.gz 78.06MB Kongsberg multibeam vendor format
0039_20150510_061702_Atlantis.all.mb58.gz 4.76MB Kongsberg multibeam vendor format
0039_20150511_034647_Atlantis.all.mb58.gz 26.92MB Kongsberg multibeam vendor format
0039_20150512_035127_Atlantis.all.mb58.gz 1.32MB Kongsberg multibeam vendor format
0039_20150513_040654_Atlantis.all.mb58.gz 7.43MB Kongsberg multibeam vendor format
0039_20150514_073807_Atlantis.all.mb58.gz 16.21MB Kongsberg multibeam vendor format
0040_20150507_011000_Atlantis.all.mb58.gz 29.90MB Kongsberg multibeam vendor format
0040_20150508_060225_Atlantis.all.mb58.gz 22.51MB Kongsberg multibeam vendor format
0040_20150510_061759_Atlantis.all.mb58.gz 14.14MB Kongsberg multibeam vendor format
0040_20150511_035157_Atlantis.all.mb58.gz 9.37MB Kongsberg multibeam vendor format
0040_20150512_035143_Atlantis.all.mb58.gz 1.36MB Kongsberg multibeam vendor format
0040_20150513_040912_Atlantis.all.mb58.gz 8.97MB Kongsberg multibeam vendor format
0040_20150514_074116_Atlantis.all.mb58.gz 18.78MB Kongsberg multibeam vendor format
0041_20150507_011540_Atlantis.all.mb58.gz 9.40MB Kongsberg multibeam vendor format
0041_20150508_060644_Atlantis.all.mb58.gz 93.20MB Kongsberg multibeam vendor format
0041_20150510_062047_Atlantis.all.mb58.gz 2.25MB Kongsberg multibeam vendor format
0041_20150511_035344_Atlantis.all.mb58.gz 4.10MB Kongsberg multibeam vendor format
0041_20150512_035159_Atlantis.all.mb58.gz 2.17MB Kongsberg multibeam vendor format
0041_20150513_041150_Atlantis.all.mb58.gz 25.66MB Kongsberg multibeam vendor format
0041_20150514_074455_Atlantis.all.mb58.gz 19.68MB Kongsberg multibeam vendor format
0042_20150507_011728_Atlantis.all.mb58.gz 12.01MB Kongsberg multibeam vendor format
0042_20150508_062435_Atlantis.all.mb58.gz 26.99MB Kongsberg multibeam vendor format
0042_20150510_062114_Atlantis.all.mb58.gz 3.95MB Kongsberg multibeam vendor format
0042_20150511_035431_Atlantis.all.mb58.gz 7.66MB Kongsberg multibeam vendor format
0042_20150512_035226_Atlantis.all.mb58.gz 2.98MB Kongsberg multibeam vendor format
0042_20150513_041832_Atlantis.all.mb58.gz 48.69MB Kongsberg multibeam vendor format
0042_20150514_074844_Atlantis.all.mb58.gz 23.11MB Kongsberg multibeam vendor format
0043_20150507_011946_Atlantis.all.mb58.gz 11.08MB Kongsberg multibeam vendor format
0043_20150508_062946_Atlantis.all.mb58.gz 16.42MB Kongsberg multibeam vendor format
0043_20150510_062200_Atlantis.all.mb58.gz 6.50MB Kongsberg multibeam vendor format
0043_20150511_035559_Atlantis.all.mb58.gz 4.11MB Kongsberg multibeam vendor format
0043_20150512_035302_Atlantis.all.mb58.gz 7.18MB Kongsberg multibeam vendor format
0043_20150513_042846_Atlantis.all.mb58.gz 4.71MB Kongsberg multibeam vendor format
0043_20150514_075314_Atlantis.all.mb58.gz 32.71MB Kongsberg multibeam vendor format
0044_20150507_012154_Atlantis.all.mb58.gz 30.89MB Kongsberg multibeam vendor format
0044_20150508_063255_Atlantis.all.mb58.gz 4.05MB Kongsberg multibeam vendor format
0044_20150510_062317_Atlantis.all.mb58.gz 12.60MB Kongsberg multibeam vendor format
0044_20150511_035645_Atlantis.all.mb58.gz 5.00MB Kongsberg multibeam vendor format
0044_20150512_035430_Atlantis.all.mb58.gz 4.68MB Kongsberg multibeam vendor format
0044_20150513_042943_Atlantis.all.mb58.gz 1.36MB Kongsberg multibeam vendor format
0044_20150514_075814_Atlantis.all.mb58.gz 50.01MB Kongsberg multibeam vendor format
0045_20150507_012745_Atlantis.all.mb58.gz 4.18MB Kongsberg multibeam vendor format
0045_20150508_063341_Atlantis.all.mb58.gz 8.47MB Kongsberg multibeam vendor format
0045_20150510_062546_Atlantis.all.mb58.gz 4.83MB Kongsberg multibeam vendor format
0045_20150511_035742_Atlantis.all.mb58.gz 3.23MB Kongsberg multibeam vendor format
0045_20150512_035527_Atlantis.all.mb58.gz 10.46MB Kongsberg multibeam vendor format
0045_20150513_043000_Atlantis.all.mb58.gz 1.32MB Kongsberg multibeam vendor format
0045_20150514_080355_Atlantis.all.mb58.gz 59.70MB Kongsberg multibeam vendor format
0046_20150507_012832_Atlantis.all.mb58.gz 2.32MB Kongsberg multibeam vendor format
0046_20150508_063519_Atlantis.all.mb58.gz 7.56MB Kongsberg multibeam vendor format
0046_20150510_062642_Atlantis.all.mb58.gz 9.23MB Kongsberg multibeam vendor format
0046_20150511_035819_Atlantis.all.mb58.gz 2.34MB Kongsberg multibeam vendor format
0046_20150512_035735_Atlantis.all.mb58.gz 3.79MB Kongsberg multibeam vendor format
0046_20150513_043016_Atlantis.all.mb58.gz 2.17MB Kongsberg multibeam vendor format
0046_20150514_081037_Atlantis.all.mb58.gz 70.27MB Kongsberg multibeam vendor format
0047_20150507_012858_Atlantis.all.mb58.gz 2.36MB Kongsberg multibeam vendor format
0047_20150508_063646_Atlantis.all.mb58.gz 55.00MB Kongsberg multibeam vendor format
0047_20150510_062830_Atlantis.all.mb58.gz 79.63MB Kongsberg multibeam vendor format
0047_20150511_035845_Atlantis.all.mb58.gz 3.23MB Kongsberg multibeam vendor format
0047_20150512_035821_Atlantis.all.mb58.gz 2.98MB Kongsberg multibeam vendor format
0047_20150513_043042_Atlantis.all.mb58.gz 3.87MB Kongsberg multibeam vendor format
0047_20150514_081829_Atlantis.all.mb58.gz 89.88MB Kongsberg multibeam vendor format
0048_20150507_012925_Atlantis.all.mb58.gz 2.32MB Kongsberg multibeam vendor format
0048_20150508_064721_Atlantis.all.mb58.gz 4.90MB Kongsberg multibeam vendor format
0048_20150510_064339_Atlantis.all.mb58.gz 32.97MB Kongsberg multibeam vendor format
0048_20150511_035922_Atlantis.all.mb58.gz 2.34MB Kongsberg multibeam vendor format
0048_20150512_035858_Atlantis.all.mb58.gz 5.48MB Kongsberg multibeam vendor format
0048_20150513_043129_Atlantis.all.mb58.gz 4.67MB Kongsberg multibeam vendor format
0048_20150514_082834_Atlantis.all.mb58.gz 13.48MB Kongsberg multibeam vendor format
0049_20150507_012951_Atlantis.all.mb58.gz 3.26MB Kongsberg multibeam vendor format
0049_20150508_064818_Atlantis.all.mb58.gz 140.44MB Kongsberg multibeam vendor format
0049_20150510_064950_Atlantis.all.mb58.gz 38.33MB Kongsberg multibeam vendor format
0049_20150511_035948_Atlantis.all.mb58.gz 1.45MB Kongsberg multibeam vendor format
0049_20150512_040005_Atlantis.all.mb58.gz 7.14MB Kongsberg multibeam vendor format
0049_20150513_043226_Atlantis.all.mb58.gz 2.98MB Kongsberg multibeam vendor format
0050_20150507_013028_Atlantis.all.mb58.gz 2.28MB Kongsberg multibeam vendor format
0050_20150508_071527_Atlantis.all.mb58.gz 112.42MB Kongsberg multibeam vendor format
0050_20150510_065702_Atlantis.all.mb58.gz 17.61MB Kongsberg multibeam vendor format
0050_20150511_040005_Atlantis.all.mb58.gz 1.45MB Kongsberg multibeam vendor format
0050_20150512_040132_Atlantis.all.mb58.gz 15.34MB Kongsberg multibeam vendor format
0050_20150513_043302_Atlantis.all.mb58.gz 3.87MB Kongsberg multibeam vendor format
0051_20150507_013055_Atlantis.all.mb58.gz 4.91MB Kongsberg multibeam vendor format
0051_20150508_073711_Atlantis.all.mb58.gz 16.26MB Kongsberg multibeam vendor format
0051_20150510_070021_Atlantis.all.mb58.gz 28.91MB Kongsberg multibeam vendor format
0051_20150511_040021_Atlantis.all.mb58.gz 1.45MB Kongsberg multibeam vendor format
0051_20150512_040441_Atlantis.all.mb58.gz 12.68MB Kongsberg multibeam vendor format
0051_20150513_043349_Atlantis.all.mb58.gz 8.04MB Kongsberg multibeam vendor format
0052_20150507_013151_Atlantis.all.mb58.gz 1.44MB Kongsberg multibeam vendor format
0052_20150508_074020_Atlantis.all.mb58.gz 22.40MB Kongsberg multibeam vendor format
0052_20150510_070546_Atlantis.all.mb58.gz 8.67MB Kongsberg multibeam vendor format
0052_20150511_040038_Atlantis.all.mb58.gz 9.53MB Kongsberg multibeam vendor format
0052_20150512_040719_Atlantis.all.mb58.gz 25.99MB Kongsberg multibeam vendor format
0052_20150513_043527_Atlantis.all.mb58.gz 4.64MB Kongsberg multibeam vendor format
0053_20150507_013208_Atlantis.all.mb58.gz 1.44MB Kongsberg multibeam vendor format
0053_20150508_074440_Atlantis.all.mb58.gz 26.75MB Kongsberg multibeam vendor format
0053_20150510_070723_Atlantis.all.mb58.gz 49.98MB Kongsberg multibeam vendor format
0053_20150511_040225_Atlantis.all.mb58.gz 1.44MB Kongsberg multibeam vendor format
0053_20150512_041330_Atlantis.all.mb58.gz 33.16MB Kongsberg multibeam vendor format
0053_20150513_043623_Atlantis.all.mb58.gz 62.62MB Kongsberg multibeam vendor format
0054_20150507_013224_Atlantis.all.mb58.gz 1.40MB Kongsberg multibeam vendor format
0054_20150508_074950_Atlantis.all.mb58.gz 38.13MB Kongsberg multibeam vendor format
0054_20150510_071657_Atlantis.all.mb58.gz 10.05MB Kongsberg multibeam vendor format
0054_20150511_040241_Atlantis.all.mb58.gz 5.04MB Kongsberg multibeam vendor format
0054_20150512_042336_Atlantis.all.mb58.gz 58.07MB Kongsberg multibeam vendor format
0054_20150513_044900_Atlantis.all.mb58.gz 53.32MB Kongsberg multibeam vendor format
0055_20150507_013241_Atlantis.all.mb58.gz 1.44MB Kongsberg multibeam vendor format
0055_20150508_075712_Atlantis.all.mb58.gz 28.51MB Kongsberg multibeam vendor format
0055_20150510_071855_Atlantis.all.mb58.gz 38.89MB Kongsberg multibeam vendor format
0055_20150511_040338_Atlantis.all.mb58.gz 3.26MB Kongsberg multibeam vendor format
0055_20150512_044727_Atlantis.all.mb58.gz 23.97MB Kongsberg multibeam vendor format
0055_20150513_045935_Atlantis.all.mb58.gz 19.47MB Kongsberg multibeam vendor format
0056_20150507_013257_Atlantis.all.mb58.gz 1.44MB Kongsberg multibeam vendor format
0056_20150508_080243_Atlantis.all.mb58.gz 8.42MB Kongsberg multibeam vendor format
0056_20150510_072637_Atlantis.all.mb58.gz 8.13MB Kongsberg multibeam vendor format
0056_20150511_040415_Atlantis.all.mb58.gz 8.69MB Kongsberg multibeam vendor format
0056_20150512_045953_Atlantis.all.mb58.gz 1.54MB Kongsberg multibeam vendor format
0056_20150513_050324_Atlantis.all.mb58.gz 31.78MB Kongsberg multibeam vendor format
0057_20150507_013313_Atlantis.all.mb58.gz 1.44MB Kongsberg multibeam vendor format
0057_20150508_080421_Atlantis.all.mb58.gz 14.49MB Kongsberg multibeam vendor format
0057_20150510_072814_Atlantis.all.mb58.gz 5.62MB Kongsberg multibeam vendor format
0057_20150511_040552_Atlantis.all.mb58.gz 10.47MB Kongsberg multibeam vendor format
0057_20150512_050040_Atlantis.all.mb58.gz 10.61MB Kongsberg multibeam vendor format
0057_20150513_050935_Atlantis.all.mb58.gz 69.51MB Kongsberg multibeam vendor format
0058_20150507_013330_Atlantis.all.mb58.gz 1.44MB Kongsberg multibeam vendor format
0058_20150508_080709_Atlantis.all.mb58.gz 2.30MB Kongsberg multibeam vendor format
0058_20150510_072922_Atlantis.all.mb58.gz 6.43MB Kongsberg multibeam vendor format
0058_20150511_040750_Atlantis.all.mb58.gz 17.66MB Kongsberg multibeam vendor format
0058_20150512_131353_Atlantis.all.mb58.gz 2.95MB Kongsberg multibeam vendor format
0058_20150513_052302_Atlantis.all.mb58.gz 8.48MB Kongsberg multibeam vendor format
0059_20150507_013346_Atlantis.all.mb58.gz 1.44MB Kongsberg multibeam vendor format
0059_20150508_080735_Atlantis.all.mb58.gz 11.94MB Kongsberg multibeam vendor format
0059_20150510_073039_Atlantis.all.mb58.gz 3.07MB Kongsberg multibeam vendor format
0059_20150511_041109_Atlantis.all.mb58.gz 44.32MB Kongsberg multibeam vendor format
0059_20150512_142312_Atlantis.all.mb58.gz 6.99MB Kongsberg multibeam vendor format
0059_20150513_052440_Atlantis.all.mb58.gz 1.44MB Kongsberg multibeam vendor format
0060_20150507_013403_Atlantis.all.mb58.gz 2.32MB Kongsberg multibeam vendor format
0060_20150508_080954_Atlantis.all.mb58.gz 12.76MB Kongsberg multibeam vendor format
0060_20150510_073115_Atlantis.all.mb58.gz 3.03MB Kongsberg multibeam vendor format
0060_20150511_041932_Atlantis.all.mb58.gz 12.07MB Kongsberg multibeam vendor format
0060_20150512_142632_Atlantis.all.mb58.gz 25.64MB Kongsberg multibeam vendor format
0060_20150513_052456_Atlantis.all.mb58.gz 1.40MB Kongsberg multibeam vendor format
0061_20150507_013429_Atlantis.all.mb58.gz 29.86MB Kongsberg multibeam vendor format
0061_20150508_081222_Atlantis.all.mb58.gz 113.24MB Kongsberg multibeam vendor format
0061_20150510_073152_Atlantis.all.mb58.gz 2.22MB Kongsberg multibeam vendor format
0061_20150511_042149_Atlantis.all.mb58.gz 12.55MB Kongsberg multibeam vendor format
0061_20150512_143737_Atlantis.all.mb58.gz 1.57MB Kongsberg multibeam vendor format
0061_20150513_052512_Atlantis.all.mb58.gz 1.40MB Kongsberg multibeam vendor format
0062_20150507_014010_Atlantis.all.mb58.gz 3.98MB Kongsberg multibeam vendor format
0062_20150508_083416_Atlantis.all.mb58.gz 52.94MB Kongsberg multibeam vendor format
0062_20150510_073218_Atlantis.all.mb58.gz 3.91MB Kongsberg multibeam vendor format
0062_20150511_042412_Atlantis.all.mb58.gz 13.88MB Kongsberg multibeam vendor format
0062_20150512_143815_Atlantis.all.mb58.gz 2.40MB Kongsberg multibeam vendor format
0062_20150513_052529_Atlantis.all.mb58.gz 1.44MB Kongsberg multibeam vendor format
0063_20150507_014057_Atlantis.all.mb58.gz 4.02MB Kongsberg multibeam vendor format
0063_20150508_084431_Atlantis.all.mb58.gz 10.83MB Kongsberg multibeam vendor format
0063_20150510_073305_Atlantis.all.mb58.gz 8.12MB Kongsberg multibeam vendor format
0063_20150511_042650_Atlantis.all.mb58.gz 16.58MB Kongsberg multibeam vendor format
0063_20150512_143912_Atlantis.all.mb58.gz 7.35MB Kongsberg multibeam vendor format
0063_20150513_052545_Atlantis.all.mb58.gz 2.29MB Kongsberg multibeam vendor format
0064_20150507_014143_Atlantis.all.mb58.gz 3.22MB Kongsberg multibeam vendor format
0064_20150508_201054_Atlantis.all.mb58.gz 119.51MB Kongsberg multibeam vendor format
0064_20150510_073443_Atlantis.all.mb58.gz 7.23MB Kongsberg multibeam vendor format
0064_20150511_042959_Atlantis.all.mb58.gz 20.20MB Kongsberg multibeam vendor format
0064_20150512_144201_Atlantis.all.mb58.gz 3.48MB Kongsberg multibeam vendor format
0064_20150513_052612_Atlantis.all.mb58.gz 19.03MB Kongsberg multibeam vendor format
0065_20150507_014221_Atlantis.all.mb58.gz 20.66MB Kongsberg multibeam vendor format
0065_20150508_203352_Atlantis.all.mb58.gz 25.16MB Kongsberg multibeam vendor format
0065_20150510_073610_Atlantis.all.mb58.gz 1.36MB Kongsberg multibeam vendor format
0065_20150511_043348_Atlantis.all.mb58.gz 10.45MB Kongsberg multibeam vendor format
0065_20150512_144319_Atlantis.all.mb58.gz 1.69MB Kongsberg multibeam vendor format
0065_20150513_052951_Atlantis.all.mb58.gz 71.96MB Kongsberg multibeam vendor format
0066_20150507_014630_Atlantis.all.mb58.gz 52.82MB Kongsberg multibeam vendor format
0066_20150508_203842_Atlantis.all.mb58.gz 65.78MB Kongsberg multibeam vendor format
0066_20150510_073626_Atlantis.all.mb58.gz 1.37MB Kongsberg multibeam vendor format
0066_20150511_043546_Atlantis.all.mb58.gz 4.13MB Kongsberg multibeam vendor format
0066_20150512_144356_Atlantis.all.mb58.gz 2.17MB Kongsberg multibeam vendor format
0066_20150513_054328_Atlantis.all.mb58.gz 82.25MB Kongsberg multibeam vendor format
0067_20150507_051436_Atlantis.all.mb58.gz 2.61MB Kongsberg multibeam vendor format
0067_20150508_205119_Atlantis.all.mb58.gz 12.02MB Kongsberg multibeam vendor format
0067_20150510_073643_Atlantis.all.mb58.gz 1.36MB Kongsberg multibeam vendor format
0067_20150511_043633_Atlantis.all.mb58.gz 19.45MB Kongsberg multibeam vendor format
0067_20150512_144444_Atlantis.all.mb58.gz 0.77MB Kongsberg multibeam vendor format
0067_20150513_055857_Atlantis.all.mb58.gz 108.86MB Kongsberg multibeam vendor format
0068_20150507_051509_Atlantis.all.mb58.gz 4.57MB Kongsberg multibeam vendor format
0068_20150508_205337_Atlantis.all.mb58.gz 23.56MB Kongsberg multibeam vendor format
0068_20150510_073659_Atlantis.all.mb58.gz 2.22MB Kongsberg multibeam vendor format
0068_20150511_044012_Atlantis.all.mb58.gz 3.26MB Kongsberg multibeam vendor format
0068_20150512_144500_Atlantis.all.mb58.gz 3.15MB Kongsberg multibeam vendor format
0068_20150513_061940_Atlantis.all.mb58.gz 99.39MB Kongsberg multibeam vendor format
0069_20150507_051605_Atlantis.all.mb58.gz 5.66MB Kongsberg multibeam vendor format
0069_20150508_205807_Atlantis.all.mb58.gz 9.39MB Kongsberg multibeam vendor format
0069_20150510_073726_Atlantis.all.mb58.gz 2.17MB Kongsberg multibeam vendor format
0069_20150511_044048_Atlantis.all.mb58.gz 2.37MB Kongsberg multibeam vendor format
0069_20150512_144609_Atlantis.all.mb58.gz 3.74MB Kongsberg multibeam vendor format
0069_20150513_063903_Atlantis.all.mb58.gz 192.13MB Kongsberg multibeam vendor format
0070_20150507_051713_Atlantis.all.mb58.gz 12.37MB Kongsberg multibeam vendor format
0070_20150508_205955_Atlantis.all.mb58.gz 16.37MB Kongsberg multibeam vendor format
0070_20150510_073752_Atlantis.all.mb58.gz 2.21MB Kongsberg multibeam vendor format
0070_20150511_044115_Atlantis.all.mb58.gz 13.96MB Kongsberg multibeam vendor format
0070_20150512_144727_Atlantis.all.mb58.gz 8.80MB Kongsberg multibeam vendor format
0070_20150513_071549_Atlantis.all.mb58.gz 303.15MB Kongsberg multibeam vendor format
0071_20150507_051941_Atlantis.all.mb58.gz 14.21MB Kongsberg multibeam vendor format
0071_20150508_210303_Atlantis.all.mb58.gz 1.45MB Kongsberg multibeam vendor format
0071_20150510_073819_Atlantis.all.mb58.gz 2.21MB Kongsberg multibeam vendor format
0071_20150511_044354_Atlantis.all.mb58.gz 3.23MB Kongsberg multibeam vendor format
0071_20150512_145036_Atlantis.all.mb58.gz 4.00MB Kongsberg multibeam vendor format
0071_20150513_081549_Atlantis.all.mb58.gz 213.65MB Kongsberg multibeam vendor format
0072_20150507_052229_Atlantis.all.mb58.gz 15.17MB Kongsberg multibeam vendor format
0072_20150508_210320_Atlantis.all.mb58.gz 4.05MB Kongsberg multibeam vendor format
0072_20150510_073845_Atlantis.all.mb58.gz 3.87MB Kongsberg multibeam vendor format
0072_20150511_044430_Atlantis.all.mb58.gz 34.49MB Kongsberg multibeam vendor format
0072_20150512_153308_Atlantis.all.mb58.gz 17.67MB Kongsberg multibeam vendor format
0072_20150513_091910_Atlantis.all.mb58.gz 0.61MB Kongsberg multibeam vendor format
0073_20150507_052528_Atlantis.all.mb58.gz 15.18MB Kongsberg multibeam vendor format
0073_20150508_210406_Atlantis.all.mb58.gz 4.96MB Kongsberg multibeam vendor format
0073_20150510_073932_Atlantis.all.mb58.gz 16.48MB Kongsberg multibeam vendor format
0073_20150511_045102_Atlantis.all.mb58.gz 7.56MB Kongsberg multibeam vendor format
0073_20150512_153945_Atlantis.all.mb58.gz 94.15MB Kongsberg multibeam vendor format
0073_20150513_091919_Atlantis.all.mb58.gz 487.6KB Kongsberg multibeam vendor format
0074_20150507_052826_Atlantis.all.mb58.gz 31.54MB Kongsberg multibeam vendor format
0074_20150508_210504_Atlantis.all.mb58.gz 4.05MB Kongsberg multibeam vendor format
0074_20150510_074251_Atlantis.all.mb58.gz 4.68MB Kongsberg multibeam vendor format
0074_20150511_045229_Atlantis.all.mb58.gz 5.79MB Kongsberg multibeam vendor format
0074_20150512_160512_Atlantis.all.mb58.gz 23.34MB Kongsberg multibeam vendor format
0075_20150507_053438_Atlantis.all.mb58.gz 36.19MB Kongsberg multibeam vendor format
0075_20150508_210550_Atlantis.all.mb58.gz 10.25MB Kongsberg multibeam vendor format
0075_20150510_074348_Atlantis.all.mb58.gz 11.31MB Kongsberg multibeam vendor format
0075_20150511_045336_Atlantis.all.mb58.gz 4.95MB Kongsberg multibeam vendor format
0075_20150512_163905_Atlantis.all.mb58.gz 16.88MB Kongsberg multibeam vendor format
0076_20150507_054150_Atlantis.all.mb58.gz 47.70MB Kongsberg multibeam vendor format
0076_20150508_210748_Atlantis.all.mb58.gz 42.86MB Kongsberg multibeam vendor format
0076_20150510_074606_Atlantis.all.mb58.gz 7.96MB Kongsberg multibeam vendor format
0076_20150511_045433_Atlantis.all.mb58.gz 2.28MB Kongsberg multibeam vendor format
0076_20150512_164246_Atlantis.all.mb58.gz 2.83MB Kongsberg multibeam vendor format
0077_20150507_055124_Atlantis.all.mb58.gz 38.18MB Kongsberg multibeam vendor format
0077_20150508_211601_Atlantis.all.mb58.gz 57.90MB Kongsberg multibeam vendor format
0077_20150510_074743_Atlantis.all.mb58.gz 8.73MB Kongsberg multibeam vendor format
0077_20150511_045459_Atlantis.all.mb58.gz 3.17MB Kongsberg multibeam vendor format
0077_20150512_164322_Atlantis.all.mb58.gz 2.02MB Kongsberg multibeam vendor format
0078_20150507_055856_Atlantis.all.mb58.gz 41.65MB Kongsberg multibeam vendor format
0078_20150508_212706_Atlantis.all.mb58.gz 19.07MB Kongsberg multibeam vendor format
0078_20150510_074931_Atlantis.all.mb58.gz 2.99MB Kongsberg multibeam vendor format
0078_20150511_045536_Atlantis.all.mb58.gz 6.64MB Kongsberg multibeam vendor format
0078_20150512_164349_Atlantis.all.mb58.gz 1.25MB Kongsberg multibeam vendor format
0079_20150507_060709_Atlantis.all.mb58.gz 1.40MB Kongsberg multibeam vendor format
0079_20150508_213045_Atlantis.all.mb58.gz 1.46MB Kongsberg multibeam vendor format
0079_20150510_075008_Atlantis.all.mb58.gz 1.33MB Kongsberg multibeam vendor format
0079_20150511_045653_Atlantis.all.mb58.gz 11.84MB Kongsberg multibeam vendor format
0079_20150512_164405_Atlantis.all.mb58.gz 2.06MB Kongsberg multibeam vendor format
0080_20150507_060726_Atlantis.all.mb58.gz 1.36MB Kongsberg multibeam vendor format
0080_20150508_213102_Atlantis.all.mb58.gz 7.59MB Kongsberg multibeam vendor format
0080_20150510_075024_Atlantis.all.mb58.gz 2.14MB Kongsberg multibeam vendor format
0080_20150511_045911_Atlantis.all.mb58.gz 31.48MB Kongsberg multibeam vendor format
0080_20150512_164432_Atlantis.all.mb58.gz 2.83MB Kongsberg multibeam vendor format
0081_20150507_060742_Atlantis.all.mb58.gz 1.37MB Kongsberg multibeam vendor format
0081_20150508_213229_Atlantis.all.mb58.gz 35.88MB Kongsberg multibeam vendor format
0081_20150510_075051_Atlantis.all.mb58.gz 5.34MB Kongsberg multibeam vendor format
0081_20150511_050523_Atlantis.all.mb58.gz 2.13MB Kongsberg multibeam vendor format
0081_20150512_164508_Atlantis.all.mb58.gz 2.88MB Kongsberg multibeam vendor format
0082_20150507_060758_Atlantis.all.mb58.gz 1.37MB Kongsberg multibeam vendor format
0082_20150508_213921_Atlantis.all.mb58.gz 9.40MB Kongsberg multibeam vendor format
0082_20150510_075157_Atlantis.all.mb58.gz 2.95MB Kongsberg multibeam vendor format
0082_20150511_050549_Atlantis.all.mb58.gz 6.41MB Kongsberg multibeam vendor format
0082_20150512_164545_Atlantis.all.mb58.gz 5.19MB Kongsberg multibeam vendor format
0083_20150507_060815_Atlantis.all.mb58.gz 3.03MB Kongsberg multibeam vendor format
0083_20150508_214109_Atlantis.all.mb58.gz 29.75MB Kongsberg multibeam vendor format
0083_20150510_075234_Atlantis.all.mb58.gz 5.35MB Kongsberg multibeam vendor format
0083_20150511_050706_Atlantis.all.mb58.gz 2.25MB Kongsberg multibeam vendor format
0083_20150512_164652_Atlantis.all.mb58.gz 23.42MB Kongsberg multibeam vendor format
0084_20150507_060851_Atlantis.all.mb58.gz 3.03MB Kongsberg multibeam vendor format
0084_20150508_214650_Atlantis.all.mb58.gz 14.66MB Kongsberg multibeam vendor format
0084_20150510_075341_Atlantis.all.mb58.gz 2.10MB Kongsberg multibeam vendor format
0084_20150511_050733_Atlantis.all.mb58.gz 2.21MB Kongsberg multibeam vendor format
0084_20150512_165152_Atlantis.all.mb58.gz 6.86MB Kongsberg multibeam vendor format
0085_20150507_060928_Atlantis.all.mb58.gz 6.35MB Kongsberg multibeam vendor format
0085_20150508_214938_Atlantis.all.mb58.gz 5.00MB Kongsberg multibeam vendor format
0085_20150510_075407_Atlantis.all.mb58.gz 6.11MB Kongsberg multibeam vendor format
0085_20150511_050759_Atlantis.all.mb58.gz 3.10MB Kongsberg multibeam vendor format
0085_20150512_165320_Atlantis.all.mb58.gz 9.24MB Kongsberg multibeam vendor format
0086_20150507_061045_Atlantis.all.mb58.gz 65.23MB Kongsberg multibeam vendor format
0086_20150508_215035_Atlantis.all.mb58.gz 8.54MB Kongsberg multibeam vendor format
0086_20150510_075524_Atlantis.all.mb58.gz 3.72MB Kongsberg multibeam vendor format
0086_20150511_050836_Atlantis.all.mb58.gz 7.29MB Kongsberg multibeam vendor format
0086_20150512_165517_Atlantis.all.mb58.gz 49.54MB Kongsberg multibeam vendor format
0087_20150507_062402_Atlantis.all.mb58.gz 34.94MB Kongsberg multibeam vendor format
0087_20150508_215213_Atlantis.all.mb58.gz 10.29MB Kongsberg multibeam vendor format
0087_20150510_075611_Atlantis.all.mb58.gz 3.68MB Kongsberg multibeam vendor format
0087_20150511_051003_Atlantis.all.mb58.gz 1.36MB Kongsberg multibeam vendor format
0087_20150512_170542_Atlantis.all.mb58.gz 16.73MB Kongsberg multibeam vendor format
0088_20150507_063114_Atlantis.all.mb58.gz 34.61MB Kongsberg multibeam vendor format
0088_20150508_215411_Atlantis.all.mb58.gz 54.44MB Kongsberg multibeam vendor format
0088_20150510_075658_Atlantis.all.mb58.gz 3.69MB Kongsberg multibeam vendor format
0088_20150511_051019_Atlantis.all.mb58.gz 2.21MB Kongsberg multibeam vendor format
0088_20150512_175919_Atlantis.all.mb58.gz 30.33MB Kongsberg multibeam vendor format
0089_20150507_063827_Atlantis.all.mb58.gz 19.80MB Kongsberg multibeam vendor format
0089_20150508_220435_Atlantis.all.mb58.gz 6.72MB Kongsberg multibeam vendor format
0089_20150510_075745_Atlantis.all.mb58.gz 2.87MB Kongsberg multibeam vendor format
0089_20150511_051046_Atlantis.all.mb58.gz 3.91MB Kongsberg multibeam vendor format
0089_20150512_180759_Atlantis.all.mb58.gz 4.64MB Kongsberg multibeam vendor format
0090_20150507_064236_Atlantis.all.mb58.gz 90.0KB Kongsberg multibeam vendor format
0090_20150508_220552_Atlantis.all.mb58.gz 18.21MB Kongsberg multibeam vendor format
0090_20150510_075821_Atlantis.all.mb58.gz 5.24MB Kongsberg multibeam vendor format
0090_20150511_051133_Atlantis.all.mb58.gz 10.55MB Kongsberg multibeam vendor format
0090_20150512_180856_Atlantis.all.mb58.gz 19.59MB Kongsberg multibeam vendor format
0091_20150507_085251_Atlantis.all.mb58.gz 485.5KB Kongsberg multibeam vendor format
0091_20150508_220921_Atlantis.all.mb58.gz 22.72MB Kongsberg multibeam vendor format
0091_20150510_075928_Atlantis.all.mb58.gz 9.19MB Kongsberg multibeam vendor format
0091_20150511_051340_Atlantis.all.mb58.gz 10.44MB Kongsberg multibeam vendor format
0091_20150512_181256_Atlantis.all.mb58.gz 21.37MB Kongsberg multibeam vendor format
0092_20150508_031847_Atlantis.all.mb58.gz 54.33MB Kongsberg multibeam vendor format
0092_20150508_221341_Atlantis.all.mb58.gz 4.07MB Kongsberg multibeam vendor format
0092_20150510_080126_Atlantis.all.mb58.gz 6.01MB Kongsberg multibeam vendor format
0092_20150511_051548_Atlantis.all.mb58.gz 1.37MB Kongsberg multibeam vendor format
0092_20150512_181715_Atlantis.all.mb58.gz 8.11MB Kongsberg multibeam vendor format
0093_20150508_033043_Atlantis.all.mb58.gz 3.97MB Kongsberg multibeam vendor format
0093_20150508_221428_Atlantis.all.mb58.gz 9.38MB Kongsberg multibeam vendor format
0093_20150510_080244_Atlantis.all.mb58.gz 8.37MB Kongsberg multibeam vendor format
0093_20150511_051605_Atlantis.all.mb58.gz 1.32MB Kongsberg multibeam vendor format
0093_20150512_181853_Atlantis.all.mb58.gz 8.95MB Kongsberg multibeam vendor format
0094_20150508_033132_Atlantis.all.mb58.gz 37.85MB Kongsberg multibeam vendor format
0094_20150508_221615_Atlantis.all.mb58.gz 2.33MB Kongsberg multibeam vendor format
0094_20150510_080431_Atlantis.all.mb58.gz 10.65MB Kongsberg multibeam vendor format
0094_20150511_051621_Atlantis.all.mb58.gz 1.37MB Kongsberg multibeam vendor format
0094_20150512_182040_Atlantis.all.mb58.gz 5.60MB Kongsberg multibeam vendor format
0095_20150508_221642_Atlantis.all.mb58.gz 2.33MB Kongsberg multibeam vendor format
0095_20150510_080649_Atlantis.all.mb58.gz 8.25MB Kongsberg multibeam vendor format
0095_20150511_051637_Atlantis.all.mb58.gz 3.84MB Kongsberg multibeam vendor format
0095_20150512_182147_Atlantis.all.mb58.gz 48.41MB Kongsberg multibeam vendor format
0095_20150513_151756_Atlantis.all.mb58.gz 298.07MB Kongsberg multibeam vendor format
0096_20150508_221709_Atlantis.all.mb58.gz 4.94MB Kongsberg multibeam vendor format
0096_20150510_080837_Atlantis.all.mb58.gz 3.57MB Kongsberg multibeam vendor format
0096_20150511_051724_Atlantis.all.mb58.gz 1.32MB Kongsberg multibeam vendor format
0096_20150512_183122_Atlantis.all.mb58.gz 1.36MB Kongsberg multibeam vendor format
0096_20150513_161755_Atlantis.all.mb58.gz 8.71MB Kongsberg multibeam vendor format
0097_20150508_221805_Atlantis.all.mb58.gz 8.51MB Kongsberg multibeam vendor format
0097_20150510_080923_Atlantis.all.mb58.gz 11.98MB Kongsberg multibeam vendor format
0097_20150511_051740_Atlantis.all.mb58.gz 1.36MB Kongsberg multibeam vendor format
0097_20150512_183137_Atlantis.all.mb58.gz 1.40MB Kongsberg multibeam vendor format
0097_20150513_161933_Atlantis.all.mb58.gz 63.01MB Kongsberg multibeam vendor format
0098_20150508_221943_Atlantis.all.mb58.gz 4.07MB Kongsberg multibeam vendor format
0098_20150510_081202_Atlantis.all.mb58.gz 57.75MB Kongsberg multibeam vendor format
0098_20150511_051757_Atlantis.all.mb58.gz 18.65MB Kongsberg multibeam vendor format
0098_20150512_183154_Atlantis.all.mb58.gz 2.25MB Kongsberg multibeam vendor format
0098_20150513_163150_Atlantis.all.mb58.gz 0.67MB Kongsberg multibeam vendor format
0099_20150508_222030_Atlantis.all.mb58.gz 1.46MB Kongsberg multibeam vendor format
0099_20150510_082711_Atlantis.all.mb58.gz 12.00MB Kongsberg multibeam vendor format
0099_20150511_052146_Atlantis.all.mb58.gz 11.18MB Kongsberg multibeam vendor format
0099_20150512_183220_Atlantis.all.mb58.gz 3.14MB Kongsberg multibeam vendor format
0100_20150508_222046_Atlantis.all.mb58.gz 4.07MB Kongsberg multibeam vendor format
0100_20150510_083110_Atlantis.all.mb58.gz 3.70MB Kongsberg multibeam vendor format
0100_20150511_052404_Atlantis.all.mb58.gz 9.48MB Kongsberg multibeam vendor format
0100_20150512_183258_Atlantis.all.mb58.gz 5.64MB Kongsberg multibeam vendor format
0101_20150508_222133_Atlantis.all.mb58.gz 2.32MB Kongsberg multibeam vendor format
0101_20150510_083228_Atlantis.all.mb58.gz 4.56MB Kongsberg multibeam vendor format
0101_20150511_052602_Atlantis.all.mb58.gz 1.33MB Kongsberg multibeam vendor format
0101_20150512_183404_Atlantis.all.mb58.gz 7.94MB Kongsberg multibeam vendor format
0102_20150508_222200_Atlantis.all.mb58.gz 3.19MB Kongsberg multibeam vendor format
0102_20150510_083405_Atlantis.all.mb58.gz 1.73MB Kongsberg multibeam vendor format
0102_20150511_052618_Atlantis.all.mb58.gz 5.38MB Kongsberg multibeam vendor format
0102_20150512_183542_Atlantis.all.mb58.gz 86.25MB Kongsberg multibeam vendor format
0103_20150508_222236_Atlantis.all.mb58.gz 4.07MB Kongsberg multibeam vendor format
0103_20150510_083443_Atlantis.all.mb58.gz 4.41MB Kongsberg multibeam vendor format
0103_20150511_052725_Atlantis.all.mb58.gz 7.04MB Kongsberg multibeam vendor format
0103_20150512_185302_Atlantis.all.mb58.gz 2.91MB Kongsberg multibeam vendor format
0104_20150508_222323_Atlantis.all.mb58.gz 2.33MB Kongsberg multibeam vendor format
0104_20150510_083622_Atlantis.all.mb58.gz 1.18MB Kongsberg multibeam vendor format
0104_20150511_052852_Atlantis.all.mb58.gz 7.04MB Kongsberg multibeam vendor format
0104_20150512_185339_Atlantis.all.mb58.gz 5.48MB Kongsberg multibeam vendor format
0105_20150508_222349_Atlantis.all.mb58.gz 8.50MB Kongsberg multibeam vendor format
0105_20150510_083649_Atlantis.all.mb58.gz 1.62MB Kongsberg multibeam vendor format
0105_20150511_053020_Atlantis.all.mb58.gz 1.29MB Kongsberg multibeam vendor format
0105_20150512_185446_Atlantis.all.mb58.gz 8.15MB Kongsberg multibeam vendor format
0106_20150508_222527_Atlantis.all.mb58.gz 4.94MB Kongsberg multibeam vendor format
0106_20150510_083726_Atlantis.all.mb58.gz 3.38MB Kongsberg multibeam vendor format
0106_20150511_053036_Atlantis.all.mb58.gz 2.95MB Kongsberg multibeam vendor format
0106_20150512_185623_Atlantis.all.mb58.gz 33.84MB Kongsberg multibeam vendor format
0107_20150508_222624_Atlantis.all.mb58.gz 2.33MB Kongsberg multibeam vendor format
0107_20150510_083844_Atlantis.all.mb58.gz 3.25MB Kongsberg multibeam vendor format
0107_20150511_053113_Atlantis.all.mb58.gz 8.52MB Kongsberg multibeam vendor format
0107_20150512_195308_Atlantis.all.mb58.gz 0.74MB Kongsberg multibeam vendor format
0108_20150508_222650_Atlantis.all.mb58.gz 11.16MB Kongsberg multibeam vendor format
0108_20150510_084002_Atlantis.all.mb58.gz 11.27MB Kongsberg multibeam vendor format
0108_20150511_053300_Atlantis.all.mb58.gz 1.29MB Kongsberg multibeam vendor format
0108_20150512_195316_Atlantis.all.mb58.gz 45.2KB Kongsberg multibeam vendor format
0109_20150508_222858_Atlantis.all.mb58.gz 9.38MB Kongsberg multibeam vendor format
0109_20150510_084443_Atlantis.all.mb58.gz 3.36MB Kongsberg multibeam vendor format
0109_20150511_053317_Atlantis.all.mb58.gz 1.33MB Kongsberg multibeam vendor format
0109_20150512_203226_Atlantis.all.mb58.gz 19.43MB Kongsberg multibeam vendor format
0110_20150508_223046_Atlantis.all.mb58.gz 12.03MB Kongsberg multibeam vendor format
0110_20150510_084611_Atlantis.all.mb58.gz 4.81MB Kongsberg multibeam vendor format
0110_20150511_053333_Atlantis.all.mb58.gz 1.29MB Kongsberg multibeam vendor format
0110_20150512_203608_Atlantis.all.mb58.gz 98.77MB Kongsberg multibeam vendor format
0111_20150508_223304_Atlantis.all.mb58.gz 2.33MB Kongsberg multibeam vendor format
0111_20150510_084819_Atlantis.all.mb58.gz 15.52MB Kongsberg multibeam vendor format
0111_20150511_053349_Atlantis.all.mb58.gz 2.10MB Kongsberg multibeam vendor format
0111_20150513_000153_Atlantis.all.mb58.gz 10.46MB Kongsberg multibeam vendor format
0112_20150508_223331_Atlantis.all.mb58.gz 8.50MB Kongsberg multibeam vendor format
0112_20150510_085532_Atlantis.all.mb58.gz 35.18MB Kongsberg multibeam vendor format
0112_20150511_053416_Atlantis.all.mb58.gz 1.33MB Kongsberg multibeam vendor format
0112_20150513_000351_Atlantis.all.mb58.gz 10.49MB Kongsberg multibeam vendor format
0113_20150508_223508_Atlantis.all.mb58.gz 22.60MB Kongsberg multibeam vendor format
0113_20150510_093547_Atlantis.all.mb58.gz 1.79MB Kongsberg multibeam vendor format
0113_20150511_053432_Atlantis.all.mb58.gz 2.91MB Kongsberg multibeam vendor format
0113_20150513_000549_Atlantis.all.mb58.gz 12.18MB Kongsberg multibeam vendor format
0114_20150508_223928_Atlantis.all.mb58.gz 4.99MB Kongsberg multibeam vendor format
0114_20150510_134936_Atlantis.all.mb58.gz 6.63MB Kongsberg multibeam vendor format
0114_20150511_053509_Atlantis.all.mb58.gz 4.53MB Kongsberg multibeam vendor format
0114_20150513_000806_Atlantis.all.mb58.gz 10.44MB Kongsberg multibeam vendor format
0115_20150508_224025_Atlantis.all.mb58.gz 4.99MB Kongsberg multibeam vendor format
0115_20150510_135236_Atlantis.all.mb58.gz 2.92MB Kongsberg multibeam vendor format
0115_20150511_053606_Atlantis.all.mb58.gz 2.90MB Kongsberg multibeam vendor format
0115_20150513_001005_Atlantis.all.mb58.gz 10.39MB Kongsberg multibeam vendor format
0116_20150508_224122_Atlantis.all.mb58.gz 2.33MB Kongsberg multibeam vendor format
0116_20150510_135354_Atlantis.all.mb58.gz 1.38MB Kongsberg multibeam vendor format
0116_20150511_053642_Atlantis.all.mb58.gz 2.95MB Kongsberg multibeam vendor format
0116_20150513_001202_Atlantis.all.mb58.gz 1.43MB Kongsberg multibeam vendor format
0117_20150508_224149_Atlantis.all.mb58.gz 4.95MB Kongsberg multibeam vendor format
0117_20150510_135430_Atlantis.all.mb58.gz 4.57MB Kongsberg multibeam vendor format
0117_20150511_053719_Atlantis.all.mb58.gz 3.72MB Kongsberg multibeam vendor format
0117_20150513_001218_Atlantis.all.mb58.gz 2.36MB Kongsberg multibeam vendor format
0118_20150508_224245_Atlantis.all.mb58.gz 1.46MB Kongsberg multibeam vendor format
0118_20150510_135629_Atlantis.all.mb58.gz 2.23MB Kongsberg multibeam vendor format
0118_20150511_053806_Atlantis.all.mb58.gz 1.28MB Kongsberg multibeam vendor format
0118_20150513_001245_Atlantis.all.mb58.gz 1.43MB Kongsberg multibeam vendor format
0119_20150508_224302_Atlantis.all.mb58.gz 7.88MB Kongsberg multibeam vendor format
0119_20150510_135726_Atlantis.all.mb58.gz 11.80MB Kongsberg multibeam vendor format
0119_20150511_053822_Atlantis.all.mb58.gz 6.88MB Kongsberg multibeam vendor format
0119_20150513_001301_Atlantis.all.mb58.gz 38.84MB Kongsberg multibeam vendor format
0120_20150509_005828_Atlantis.all.mb58.gz 25.10MB Kongsberg multibeam vendor format
0120_20150510_140216_Atlantis.all.mb58.gz 3.28MB Kongsberg multibeam vendor format
0120_20150511_053949_Atlantis.all.mb58.gz 1.29MB Kongsberg multibeam vendor format
0120_20150513_002023_Atlantis.all.mb58.gz 85.83MB Kongsberg multibeam vendor format
0121_20150509_010316_Atlantis.all.mb58.gz 28.13MB Kongsberg multibeam vendor format
0121_20150510_140333_Atlantis.all.mb58.gz 4.84MB Kongsberg multibeam vendor format
0121_20150511_054006_Atlantis.all.mb58.gz 8.43MB Kongsberg multibeam vendor format
0122_20150509_043001_Atlantis.all.mb58.gz 8.16MB Kongsberg multibeam vendor format
0122_20150510_140521_Atlantis.all.mb58.gz 3.55MB Kongsberg multibeam vendor format
0122_20150511_054153_Atlantis.all.mb58.gz 2.06MB Kongsberg multibeam vendor format
0123_20150509_043141_Atlantis.all.mb58.gz 9.61MB Kongsberg multibeam vendor format
0123_20150510_140639_Atlantis.all.mb58.gz 4.62MB Kongsberg multibeam vendor format
0123_20150511_054220_Atlantis.all.mb58.gz 7.59MB Kongsberg multibeam vendor format
0124_20150509_043338_Atlantis.all.mb58.gz 21.93MB Kongsberg multibeam vendor format
0124_20150510_140816_Atlantis.all.mb58.gz 19.48MB Kongsberg multibeam vendor format
0124_20150511_054357_Atlantis.all.mb58.gz 4.42MB Kongsberg multibeam vendor format
0125_20150509_043808_Atlantis.all.mb58.gz 22.44MB Kongsberg multibeam vendor format
0125_20150510_141438_Atlantis.all.mb58.gz 1.42MB Kongsberg multibeam vendor format
0125_20150511_054454_Atlantis.all.mb58.gz 5.15MB Kongsberg multibeam vendor format
0126_20150509_044248_Atlantis.all.mb58.gz 37.74MB Kongsberg multibeam vendor format
0126_20150510_141504_Atlantis.all.mb58.gz 1.47MB Kongsberg multibeam vendor format
0126_20150511_054601_Atlantis.all.mb58.gz 12.11MB Kongsberg multibeam vendor format
0127_20150509_045041_Atlantis.all.mb58.gz 56.73MB Kongsberg multibeam vendor format
0127_20150510_141531_Atlantis.all.mb58.gz 15.27MB Kongsberg multibeam vendor format
0127_20150511_054840_Atlantis.all.mb58.gz 5.08MB Kongsberg multibeam vendor format
0128_20150509_050247_Atlantis.all.mb58.gz 5.16MB Kongsberg multibeam vendor format
0128_20150510_141950_Atlantis.all.mb58.gz 2.94MB Kongsberg multibeam vendor format
0128_20150511_054947_Atlantis.all.mb58.gz 33.57MB Kongsberg multibeam vendor format
0129_20150509_050354_Atlantis.all.mb58.gz 12.94MB Kongsberg multibeam vendor format
0129_20150510_142037_Atlantis.all.mb58.gz 4.37MB Kongsberg multibeam vendor format
0129_20150511_055739_Atlantis.all.mb58.gz 16.94MB Kongsberg multibeam vendor format
0130_20150509_050642_Atlantis.all.mb58.gz 3.62MB Kongsberg multibeam vendor format
0130_20150510_142144_Atlantis.all.mb58.gz 1.10MB Kongsberg multibeam vendor format
0130_20150511_060209_Atlantis.all.mb58.gz 17.48MB Kongsberg multibeam vendor format
0131_20150509_050730_Atlantis.all.mb58.gz 8.99MB Kongsberg multibeam vendor format
0131_20150510_142200_Atlantis.all.mb58.gz 2.46MB Kongsberg multibeam vendor format
0131_20150511_060709_Atlantis.all.mb58.gz 3.75MB Kongsberg multibeam vendor format
0132_20150509_050927_Atlantis.all.mb58.gz 2.80MB Kongsberg multibeam vendor format
0132_20150510_142237_Atlantis.all.mb58.gz 8.24MB Kongsberg multibeam vendor format
0132_20150511_060817_Atlantis.all.mb58.gz 5.91MB Kongsberg multibeam vendor format
0133_20150509_051004_Atlantis.all.mb58.gz 5.12MB Kongsberg multibeam vendor format
0133_20150510_142435_Atlantis.all.mb58.gz 12.44MB Kongsberg multibeam vendor format
0133_20150511_061005_Atlantis.all.mb58.gz 5.22MB Kongsberg multibeam vendor format
0134_20150509_051111_Atlantis.all.mb58.gz 50.52MB Kongsberg multibeam vendor format
0134_20150510_142724_Atlantis.all.mb58.gz 1.21MB Kongsberg multibeam vendor format
0134_20150511_061143_Atlantis.all.mb58.gz 15.38MB Kongsberg multibeam vendor format
0135_20150509_052226_Atlantis.all.mb58.gz 3.35MB Kongsberg multibeam vendor format
0135_20150510_142740_Atlantis.all.mb58.gz 2.03MB Kongsberg multibeam vendor format
0135_20150511_061643_Atlantis.all.mb58.gz 22.54MB Kongsberg multibeam vendor format
0136_20150509_052313_Atlantis.all.mb58.gz 11.83MB Kongsberg multibeam vendor format
0136_20150510_142807_Atlantis.all.mb58.gz 4.35MB Kongsberg multibeam vendor format
0136_20150511_062436_Atlantis.all.mb58.gz 12.14MB Kongsberg multibeam vendor format
0137_20150509_052602_Atlantis.all.mb58.gz 8.61MB Kongsberg multibeam vendor format
0137_20150510_142904_Atlantis.all.mb58.gz 2.02MB Kongsberg multibeam vendor format
0137_20150511_062906_Atlantis.all.mb58.gz 6.50MB Kongsberg multibeam vendor format
0138_20150509_052809_Atlantis.all.mb58.gz 13.42MB Kongsberg multibeam vendor format
0138_20150510_142930_Atlantis.all.mb58.gz 10.58MB Kongsberg multibeam vendor format
0138_20150511_063136_Atlantis.all.mb58.gz 12.19MB Kongsberg multibeam vendor format
0139_20150509_053139_Atlantis.all.mb58.gz 25.36MB Kongsberg multibeam vendor format
0139_20150510_143148_Atlantis.all.mb58.gz 1.29MB Kongsberg multibeam vendor format
0139_20150511_063627_Atlantis.all.mb58.gz 7.24MB Kongsberg multibeam vendor format
0140_20150509_053901_Atlantis.all.mb58.gz 4.67MB Kongsberg multibeam vendor format
0140_20150510_143205_Atlantis.all.mb58.gz 1.25MB Kongsberg multibeam vendor format
0140_20150511_063926_Atlantis.all.mb58.gz 20.11MB Kongsberg multibeam vendor format
0141_20150509_054028_Atlantis.all.mb58.gz 1.40MB Kongsberg multibeam vendor format
0141_20150510_143221_Atlantis.all.mb58.gz 1.25MB Kongsberg multibeam vendor format
0141_20150511_064810_Atlantis.all.mb58.gz 1.00MB Kongsberg multibeam vendor format
0142_20150509_054055_Atlantis.all.mb58.gz 6.47MB Kongsberg multibeam vendor format
0142_20150510_143237_Atlantis.all.mb58.gz 1.29MB Kongsberg multibeam vendor format
0142_20150511_064836_Atlantis.all.mb58.gz 1.76MB Kongsberg multibeam vendor format
0143_20150509_054303_Atlantis.all.mb58.gz 10.31MB Kongsberg multibeam vendor format
0143_20150510_143254_Atlantis.all.mb58.gz 2.06MB Kongsberg multibeam vendor format
0143_20150511_064924_Atlantis.all.mb58.gz 1.35MB Kongsberg multibeam vendor format
0144_20150509_054633_Atlantis.all.mb58.gz 2.24MB Kongsberg multibeam vendor format
0144_20150510_143320_Atlantis.all.mb58.gz 7.62MB Kongsberg multibeam vendor format
0144_20150511_065000_Atlantis.all.mb58.gz 5.74MB Kongsberg multibeam vendor format
0145_20150509_054720_Atlantis.all.mb58.gz 1.30MB Kongsberg multibeam vendor format
0145_20150510_143458_Atlantis.all.mb58.gz 6.88MB Kongsberg multibeam vendor format
0145_20150511_065238_Atlantis.all.mb58.gz 0.95MB Kongsberg multibeam vendor format
0146_20150509_054747_Atlantis.all.mb58.gz 0.82MB Kongsberg multibeam vendor format
0146_20150510_143625_Atlantis.all.mb58.gz 23.00MB Kongsberg multibeam vendor format
0146_20150511_065305_Atlantis.all.mb58.gz 0.94MB Kongsberg multibeam vendor format
0147_20150509_054805_Atlantis.all.mb58.gz 3.17MB Kongsberg multibeam vendor format
0147_20150510_144115_Atlantis.all.mb58.gz 7.00MB Kongsberg multibeam vendor format
0147_20150511_065332_Atlantis.all.mb58.gz 4.85MB Kongsberg multibeam vendor format
0148_20150509_054913_Atlantis.all.mb58.gz 3.06MB Kongsberg multibeam vendor format
0148_20150510_144243_Atlantis.all.mb58.gz 2.90MB Kongsberg multibeam vendor format
0148_20150511_065550_Atlantis.all.mb58.gz 6.81MB Kongsberg multibeam vendor format
0149_20150509_055021_Atlantis.all.mb58.gz 0.73MB Kongsberg multibeam vendor format
0149_20150510_144319_Atlantis.all.mb58.gz 2.13MB Kongsberg multibeam vendor format
0149_20150511_065909_Atlantis.all.mb58.gz 1.24MB Kongsberg multibeam vendor format
0150_20150509_055037_Atlantis.all.mb58.gz 1.66MB Kongsberg multibeam vendor format
0150_20150510_144345_Atlantis.all.mb58.gz 1.33MB Kongsberg multibeam vendor format
0150_20150511_065945_Atlantis.all.mb58.gz 3.30MB Kongsberg multibeam vendor format
0151_20150509_055114_Atlantis.all.mb58.gz 0.73MB Kongsberg multibeam vendor format
0151_20150510_144402_Atlantis.all.mb58.gz 1.28MB Kongsberg multibeam vendor format
0151_20150511_070124_Atlantis.all.mb58.gz 5.02MB Kongsberg multibeam vendor format
0152_20150509_055130_Atlantis.all.mb58.gz 1.65MB Kongsberg multibeam vendor format
0152_20150510_144418_Atlantis.all.mb58.gz 10.17MB Kongsberg multibeam vendor format
0152_20150511_070403_Atlantis.all.mb58.gz 0.87MB Kongsberg multibeam vendor format
0153_20150509_055207_Atlantis.all.mb58.gz 0.78MB Kongsberg multibeam vendor format
0153_20150510_144626_Atlantis.all.mb58.gz 12.68MB Kongsberg multibeam vendor format
0153_20150511_070431_Atlantis.all.mb58.gz 2.54MB Kongsberg multibeam vendor format
0154_20150509_055225_Atlantis.all.mb58.gz 6.74MB Kongsberg multibeam vendor format
0154_20150510_144904_Atlantis.all.mb58.gz 2.22MB Kongsberg multibeam vendor format
0154_20150511_070549_Atlantis.all.mb58.gz 2.44MB Kongsberg multibeam vendor format
0155_20150509_055504_Atlantis.all.mb58.gz 12.26MB Kongsberg multibeam vendor format
0155_20150511_013614_Atlantis.all.mb58.gz 4.11MB Kongsberg multibeam vendor format
0155_20150511_070706_Atlantis.all.mb58.gz 0.54MB Kongsberg multibeam vendor format
0156_20150509_060004_Atlantis.all.mb58.gz 9.94MB Kongsberg multibeam vendor format
0156_20150511_013829_Atlantis.all.mb58.gz 4.87MB Kongsberg multibeam vendor format
0156_20150511_070723_Atlantis.all.mb58.gz 0.54MB Kongsberg multibeam vendor format
0157_20150509_060425_Atlantis.all.mb58.gz 1.76MB Kongsberg multibeam vendor format
0157_20150511_014108_Atlantis.all.mb58.gz 7.32MB Kongsberg multibeam vendor format
0157_20150511_070740_Atlantis.all.mb58.gz 0.54MB Kongsberg multibeam vendor format
0158_20150509_060512_Atlantis.all.mb58.gz 6.51MB Kongsberg multibeam vendor format
0158_20150511_014508_Atlantis.all.mb58.gz 8.11MB Kongsberg multibeam vendor format
0158_20150511_070757_Atlantis.all.mb58.gz 1.51MB Kongsberg multibeam vendor format
0159_20150509_060811_Atlantis.all.mb58.gz 7.80MB Kongsberg multibeam vendor format
0159_20150511_014957_Atlantis.all.mb58.gz 11.27MB Kongsberg multibeam vendor format
0159_20150511_070844_Atlantis.all.mb58.gz 1.19MB Kongsberg multibeam vendor format
0160_20150509_061151_Atlantis.all.mb58.gz 13.98MB Kongsberg multibeam vendor format
0160_20150511_015610_Atlantis.all.mb58.gz 2.38MB Kongsberg multibeam vendor format
0160_20150511_070921_Atlantis.all.mb58.gz 1.78MB Kongsberg multibeam vendor format
0161_20150509_061854_Atlantis.all.mb58.gz 14.28MB Kongsberg multibeam vendor format
0161_20150511_015727_Atlantis.all.mb58.gz 6.50MB Kongsberg multibeam vendor format
0161_20150511_071018_Atlantis.all.mb58.gz 1.51MB Kongsberg multibeam vendor format
0162_20150509_062626_Atlantis.all.mb58.gz 3.96MB Kongsberg multibeam vendor format
0162_20150511_020056_Atlantis.all.mb58.gz 0.88MB Kongsberg multibeam vendor format
0162_20150511_071105_Atlantis.all.mb58.gz 1.83MB Kongsberg multibeam vendor format
0163_20150509_062835_Atlantis.all.mb58.gz 6.72MB Kongsberg multibeam vendor format
0163_20150511_020125_Atlantis.all.mb58.gz 0.83MB Kongsberg multibeam vendor format
0163_20150511_071202_Atlantis.all.mb58.gz 2.85MB Kongsberg multibeam vendor format
0164_20150509_063214_Atlantis.all.mb58.gz 2.36MB Kongsberg multibeam vendor format
0164_20150511_020151_Atlantis.all.mb58.gz 1.21MB Kongsberg multibeam vendor format
0164_20150511_071331_Atlantis.all.mb58.gz 13.16MB Kongsberg multibeam vendor format
0165_20150509_063331_Atlantis.all.mb58.gz 0.54MB Kongsberg multibeam vendor format
0165_20150511_020230_Atlantis.all.mb58.gz 1.16MB Kongsberg multibeam vendor format
0165_20150511_072023_Atlantis.all.mb58.gz 77.84MB Kongsberg multibeam vendor format
0166_20150509_063349_Atlantis.all.mb58.gz 14.15MB Kongsberg multibeam vendor format
0166_20150511_020307_Atlantis.all.mb58.gz 1.48MB Kongsberg multibeam vendor format
0166_20150511_134333_Atlantis.all.mb58.gz 3.84MB Kongsberg multibeam vendor format
0167_20150509_064122_Atlantis.all.mb58.gz 31.27MB Kongsberg multibeam vendor format
0167_20150511_020354_Atlantis.all.mb58.gz 1.80MB Kongsberg multibeam vendor format
0167_20150511_154516_Atlantis.all.mb58.gz 14.29MB Kongsberg multibeam vendor format
0168_20150509_065833_Atlantis.all.mb58.gz 1.08MB Kongsberg multibeam vendor format
0168_20150511_020451_Atlantis.all.mb58.gz 1.52MB Kongsberg multibeam vendor format
0168_20150511_154803_Atlantis.all.mb58.gz 9.26MB Kongsberg multibeam vendor format
0169_20150509_065910_Atlantis.all.mb58.gz 1.71MB Kongsberg multibeam vendor format
0169_20150511_020539_Atlantis.all.mb58.gz 1.19MB Kongsberg multibeam vendor format
0169_20150511_154950_Atlantis.all.mb58.gz 2.24MB Kongsberg multibeam vendor format
0170_20150509_070009_Atlantis.all.mb58.gz 4.01MB Kongsberg multibeam vendor format
0170_20150511_020617_Atlantis.all.mb58.gz 3.12MB Kongsberg multibeam vendor format
0170_20150511_155016_Atlantis.all.mb58.gz 9.37MB Kongsberg multibeam vendor format
0171_20150509_070229_Atlantis.all.mb58.gz 1.08MB Kongsberg multibeam vendor format
0171_20150511_020754_Atlantis.all.mb58.gz 4.11MB Kongsberg multibeam vendor format
0171_20150511_155204_Atlantis.all.mb58.gz 52.32MB Kongsberg multibeam vendor format
0172_20150509_070307_Atlantis.all.mb58.gz 11.18MB Kongsberg multibeam vendor format
0172_20150511_021004_Atlantis.all.mb58.gz 3.82MB Kongsberg multibeam vendor format
0172_20150511_160158_Atlantis.all.mb58.gz 30.11MB Kongsberg multibeam vendor format
0173_20150509_070938_Atlantis.all.mb58.gz 4.28MB Kongsberg multibeam vendor format
0173_20150511_021202_Atlantis.all.mb58.gz 4.14MB Kongsberg multibeam vendor format
0173_20150511_160739_Atlantis.all.mb58.gz 6.79MB Kongsberg multibeam vendor format
0174_20150509_071208_Atlantis.all.mb58.gz 4.24MB Kongsberg multibeam vendor format
0174_20150511_021412_Atlantis.all.mb58.gz 1.73MB Kongsberg multibeam vendor format
0174_20150511_160856_Atlantis.all.mb58.gz 11.25MB Kongsberg multibeam vendor format
0175_20150509_160015_Atlantis.all.mb58.gz 7.30MB Kongsberg multibeam vendor format
0175_20150511_161104_Atlantis.all.mb58.gz 13.86MB Kongsberg multibeam vendor format
0176_20150509_160409_Atlantis.all.mb58.gz 22.45MB Kongsberg multibeam vendor format
0176_20150511_161342_Atlantis.all.mb58.gz 7.67MB Kongsberg multibeam vendor format
0177_20150509_161605_Atlantis.all.mb58.gz 9.05MB Kongsberg multibeam vendor format
0177_20150511_161510_Atlantis.all.mb58.gz 7.62MB Kongsberg multibeam vendor format
0178_20150509_162046_Atlantis.all.mb58.gz 9.87MB Kongsberg multibeam vendor format
0178_20150511_161637_Atlantis.all.mb58.gz 5.87MB Kongsberg multibeam vendor format
0179_20150509_170301_Atlantis.all.mb58.gz 22.78MB Kongsberg multibeam vendor format
0179_20150511_161744_Atlantis.all.mb58.gz 10.27MB Kongsberg multibeam vendor format
0180_20150509_171426_Atlantis.all.mb58.gz 10.63MB Kongsberg multibeam vendor format
0180_20150511_161941_Atlantis.all.mb58.gz 1.46MB Kongsberg multibeam vendor format
0181_20150509_171948_Atlantis.all.mb58.gz 3.54MB Kongsberg multibeam vendor format
0181_20150511_161958_Atlantis.all.mb58.gz 12.05MB Kongsberg multibeam vendor format
0182_20150509_172137_Atlantis.all.mb58.gz 3.82MB Kongsberg multibeam vendor format
0182_20150511_162216_Atlantis.all.mb58.gz 4.08MB Kongsberg multibeam vendor format
0183_20150509_172334_Atlantis.all.mb58.gz 3.77MB Kongsberg multibeam vendor format
0183_20150511_162303_Atlantis.all.mb58.gz 7.61MB Kongsberg multibeam vendor format
0184_20150509_172532_Atlantis.all.mb58.gz 19.33MB Kongsberg multibeam vendor format
0184_20150511_162430_Atlantis.all.mb58.gz 1.46MB Kongsberg multibeam vendor format
0185_20150509_173526_Atlantis.all.mb58.gz 5.93MB Kongsberg multibeam vendor format
0185_20150511_162447_Atlantis.all.mb58.gz 1.41MB Kongsberg multibeam vendor format
0186_20150509_173826_Atlantis.all.mb58.gz 3.19MB Kongsberg multibeam vendor format
0186_20150511_162503_Atlantis.all.mb58.gz 2.33MB Kongsberg multibeam vendor format
0187_20150509_174004_Atlantis.all.mb58.gz 8.55MB Kongsberg multibeam vendor format
0187_20150511_162529_Atlantis.all.mb58.gz 10.26MB Kongsberg multibeam vendor format
0188_20150509_174424_Atlantis.all.mb58.gz 4.61MB Kongsberg multibeam vendor format
0188_20150511_162727_Atlantis.all.mb58.gz 8.52MB Kongsberg multibeam vendor format
0189_20150509_174643_Atlantis.all.mb58.gz 3.59MB Kongsberg multibeam vendor format
0189_20150511_162905_Atlantis.all.mb58.gz 1.12MB Kongsberg multibeam vendor format
0190_20150509_174832_Atlantis.all.mb58.gz 6.29MB Kongsberg multibeam vendor format
0190_20150512_014201_Atlantis.all.mb58.gz 0.68MB Kongsberg multibeam vendor format
0191_20150509_175141_Atlantis.all.mb58.gz 0.59MB Kongsberg multibeam vendor format
0191_20150512_014209_Atlantis.all.mb58.gz 31.54MB Kongsberg multibeam vendor format
0192_20150509_175158_Atlantis.all.mb58.gz 0.54MB Kongsberg multibeam vendor format
0192_20150512_014820_Atlantis.all.mb58.gz 10.94MB Kongsberg multibeam vendor format
0193_20150509_175215_Atlantis.all.mb58.gz 0.86MB Kongsberg multibeam vendor format
0193_20150512_015028_Atlantis.all.mb58.gz 22.48MB Kongsberg multibeam vendor format
0194_20150509_175241_Atlantis.all.mb58.gz 8.91MB Kongsberg multibeam vendor format
0194_20150512_015448_Atlantis.all.mb58.gz 5.79MB Kongsberg multibeam vendor format
0195_20150509_175712_Atlantis.all.mb58.gz 13.14MB Kongsberg multibeam vendor format
0195_20150512_015555_Atlantis.all.mb58.gz 11.17MB Kongsberg multibeam vendor format
0196_20150509_180354_Atlantis.all.mb58.gz 20.70MB Kongsberg multibeam vendor format
0196_20150512_015803_Atlantis.all.mb58.gz 2.32MB Kongsberg multibeam vendor format
0197_20150509_181429_Atlantis.all.mb58.gz 13.25MB Kongsberg multibeam vendor format
0197_20150512_015829_Atlantis.all.mb58.gz 4.93MB Kongsberg multibeam vendor format
0198_20150509_182101_Atlantis.all.mb58.gz 5.79MB Kongsberg multibeam vendor format
0198_20150512_015926_Atlantis.all.mb58.gz 1.44MB Kongsberg multibeam vendor format
0199_20150509_182350_Atlantis.all.mb58.gz 2.37MB Kongsberg multibeam vendor format
0199_20150512_015942_Atlantis.all.mb58.gz 2.32MB Kongsberg multibeam vendor format
0200_20150509_182458_Atlantis.all.mb58.gz 1.32MB Kongsberg multibeam vendor format
0200_20150512_020009_Atlantis.all.mb58.gz 1.40MB Kongsberg multibeam vendor format
0201_20150509_182536_Atlantis.all.mb58.gz 0.95MB Kongsberg multibeam vendor format
0201_20150512_020025_Atlantis.all.mb58.gz 3.21MB Kongsberg multibeam vendor format
0202_20150509_182604_Atlantis.all.mb58.gz 1.27MB Kongsberg multibeam vendor format
0202_20150512_020102_Atlantis.all.mb58.gz 6.72MB Kongsberg multibeam vendor format
0203_20150509_182641_Atlantis.all.mb58.gz 0.90MB Kongsberg multibeam vendor format
0203_20150512_020219_Atlantis.all.mb58.gz 4.95MB Kongsberg multibeam vendor format
0204_20150509_182707_Atlantis.all.mb58.gz 1.64MB Kongsberg multibeam vendor format
0204_20150512_020316_Atlantis.all.mb58.gz 5.83MB Kongsberg multibeam vendor format
0205_20150509_182754_Atlantis.all.mb58.gz 1.95MB Kongsberg multibeam vendor format
0205_20150512_020423_Atlantis.all.mb58.gz 19.28MB Kongsberg multibeam vendor format
0206_20150509_182850_Atlantis.all.mb58.gz 0.95MB Kongsberg multibeam vendor format
0206_20150512_020802_Atlantis.all.mb58.gz 17.61MB Kongsberg multibeam vendor format
0207_20150509_182918_Atlantis.all.mb58.gz 1.31MB Kongsberg multibeam vendor format
0207_20150512_021121_Atlantis.all.mb58.gz 2.33MB Kongsberg multibeam vendor format
0208_20150509_182956_Atlantis.all.mb58.gz 2.01MB Kongsberg multibeam vendor format
0208_20150512_021147_Atlantis.all.mb58.gz 45.57MB Kongsberg multibeam vendor format
0209_20150509_183054_Atlantis.all.mb58.gz 1.32MB Kongsberg multibeam vendor format
0209_20150512_022020_Atlantis.all.mb58.gz 13.08MB Kongsberg multibeam vendor format
0210_20150509_183131_Atlantis.all.mb58.gz 10.63MB Kongsberg multibeam vendor format
0210_20150512_022248_Atlantis.all.mb58.gz 37.01MB Kongsberg multibeam vendor format
0211_20150509_183633_Atlantis.all.mb58.gz 1.98MB Kongsberg multibeam vendor format
0211_20150512_022950_Atlantis.all.mb58.gz 10.47MB Kongsberg multibeam vendor format
0212_20150509_183730_Atlantis.all.mb58.gz 7.44MB Kongsberg multibeam vendor format
0213_20150509_184059_Atlantis.all.mb58.gz 5.19MB Kongsberg multibeam vendor format
0214_20150509_184327_Atlantis.all.mb58.gz 2.33MB Kongsberg multibeam vendor format
0215_20150509_184434_Atlantis.all.mb58.gz 3.05MB Kongsberg multibeam vendor format
0216_20150509_184601_Atlantis.all.mb58.gz 1.30MB Kongsberg multibeam vendor format
0217_20150509_184638_Atlantis.all.mb58.gz 2.04MB Kongsberg multibeam vendor format
0218_20150509_184736_Atlantis.all.mb58.gz 2.72MB Kongsberg multibeam vendor format
0219_20150509_184853_Atlantis.all.mb58.gz 6.74MB Kongsberg multibeam vendor format
0220_20150509_185201_Atlantis.all.mb58.gz 1.00MB Kongsberg multibeam vendor format
0221_20150509_185229_Atlantis.all.mb58.gz 1.36MB Kongsberg multibeam vendor format
0222_20150509_185306_Atlantis.all.mb58.gz 1.32MB Kongsberg multibeam vendor format
0223_20150509_185343_Atlantis.all.mb58.gz 6.06MB Kongsberg multibeam vendor format
0224_20150509_185632_Atlantis.all.mb58.gz 4.51MB Kongsberg multibeam vendor format
0225_20150509_185841_Atlantis.all.mb58.gz 2.74MB Kongsberg multibeam vendor format
0226_20150509_185959_Atlantis.all.mb58.gz 2.35MB Kongsberg multibeam vendor format
0227_20150509_190107_Atlantis.all.mb58.gz 11.55MB Kongsberg multibeam vendor format
0228_20150509_190649_Atlantis.all.mb58.gz 1.21MB Kongsberg multibeam vendor format
0229_20150509_190725_Atlantis.all.mb58.gz 0.89MB Kongsberg multibeam vendor format
0230_20150509_190752_Atlantis.all.mb58.gz 1.21MB Kongsberg multibeam vendor format
0231_20150509_190829_Atlantis.all.mb58.gz 2.84MB Kongsberg multibeam vendor format
0232_20150509_190957_Atlantis.all.mb58.gz 2.09MB Kongsberg multibeam vendor format
0233_20150509_191105_Atlantis.all.mb58.gz 7.78MB Kongsberg multibeam vendor format
0234_20150509_191515_Atlantis.all.mb58.gz 12.06MB Kongsberg multibeam vendor format
0235_20150509_192136_Atlantis.all.mb58.gz 7.61MB Kongsberg multibeam vendor format
0236_20150509_192537_Atlantis.all.mb58.gz 1.49MB Kongsberg multibeam vendor format
0237_20150509_192624_Atlantis.all.mb58.gz 10.18MB Kongsberg multibeam vendor format
0238_20150509_193145_Atlantis.all.mb58.gz 3.46MB Kongsberg multibeam vendor format
0239_20150509_193334_Atlantis.all.mb58.gz 1.21MB Kongsberg multibeam vendor format
0240_20150509_193412_Atlantis.all.mb58.gz 11.70MB Kongsberg multibeam vendor format
0241_20150509_194024_Atlantis.all.mb58.gz 2.47MB Kongsberg multibeam vendor format
0242_20150509_194142_Atlantis.all.mb58.gz 2.47MB Kongsberg multibeam vendor format
0243_20150509_194300_Atlantis.all.mb58.gz 3.08MB Kongsberg multibeam vendor format
0244_20150509_194438_Atlantis.all.mb58.gz 3.73MB Kongsberg multibeam vendor format
0245_20150509_194636_Atlantis.all.mb58.gz 2.14MB Kongsberg multibeam vendor format
0246_20150509_194744_Atlantis.all.mb58.gz 0.88MB Kongsberg multibeam vendor format
0247_20150509_194811_Atlantis.all.mb58.gz 4.42MB Kongsberg multibeam vendor format
0248_20150509_195030_Atlantis.all.mb58.gz 5.72MB Kongsberg multibeam vendor format
0249_20150509_195330_Atlantis.all.mb58.gz 1.85MB Kongsberg multibeam vendor format
0250_20150509_195428_Atlantis.all.mb58.gz 2.18MB Kongsberg multibeam vendor format
0251_20150509_195536_Atlantis.all.mb58.gz 7.32MB Kongsberg multibeam vendor format
0252_20150509_195925_Atlantis.all.mb58.gz 10.89MB Kongsberg multibeam vendor format
0253_20150509_200507_Atlantis.all.mb58.gz 8.97MB Kongsberg multibeam vendor format
0254_20150509_200948_Atlantis.all.mb58.gz 3.80MB Kongsberg multibeam vendor format
0255_20150509_201147_Atlantis.all.mb58.gz 1.53MB Kongsberg multibeam vendor format
0256_20150509_201235_Atlantis.all.mb58.gz 0.55MB Kongsberg multibeam vendor format
0257_20150509_201252_Atlantis.all.mb58.gz 0.55MB Kongsberg multibeam vendor format
0258_20150509_201310_Atlantis.all.mb58.gz 0.55MB Kongsberg multibeam vendor format
0259_20150509_201327_Atlantis.all.mb58.gz 0.83MB Kongsberg multibeam vendor format
0260_20150509_201353_Atlantis.all.mb58.gz 4.69MB Kongsberg multibeam vendor format
0261_20150509_201623_Atlantis.all.mb58.gz 4.25MB Kongsberg multibeam vendor format
0262_20150509_201842_Atlantis.all.mb58.gz 3.93MB Kongsberg multibeam vendor format
0263_20150509_202051_Atlantis.all.mb58.gz 6.13MB Kongsberg multibeam vendor format
0264_20150509_202411_Atlantis.all.mb58.gz 1.82MB Kongsberg multibeam vendor format
0265_20150509_202509_Atlantis.all.mb58.gz 0.50MB Kongsberg multibeam vendor format
0266_20150509_202525_Atlantis.all.mb58.gz 2.46MB Kongsberg multibeam vendor format
0267_20150509_202643_Atlantis.all.mb58.gz 17.92MB Kongsberg multibeam vendor format
0268_20150509_203608_Atlantis.all.mb58.gz 5.66MB Kongsberg multibeam vendor format
0269_20150509_203906_Atlantis.all.mb58.gz 3.11MB Kongsberg multibeam vendor format
0270_20150509_204044_Atlantis.all.mb58.gz 0.55MB Kongsberg multibeam vendor format
0271_20150509_204102_Atlantis.all.mb58.gz 0.83MB Kongsberg multibeam vendor format
0272_20150509_204128_Atlantis.all.mb58.gz 1.82MB Kongsberg multibeam vendor format
0273_20150509_204226_Atlantis.all.mb58.gz 3.64MB Kongsberg multibeam vendor format
0274_20150510_013616_Atlantis.all.mb58.gz 223.7KB Kongsberg multibeam vendor format
0275_20150510_034506_Atlantis.all.mb58.gz 56.30MB Kongsberg multibeam vendor format
0276_20150510_041312_Atlantis.all.mb58.gz 1.61MB Kongsberg multibeam vendor format
0277_20150510_041400_Atlantis.all.mb58.gz 1.62MB Kongsberg multibeam vendor format
0278_20150510_041448_Atlantis.all.mb58.gz 0.92MB Kongsberg multibeam vendor format
0279_20150510_041515_Atlantis.all.mb58.gz 0.92MB Kongsberg multibeam vendor format
0280_20150510_041542_Atlantis.all.mb58.gz 3.32MB Kongsberg multibeam vendor format
0281_20150510_041720_Atlantis.all.mb58.gz 2.29MB Kongsberg multibeam vendor format
0282_20150510_041828_Atlantis.all.mb58.gz 1.91MB Kongsberg multibeam vendor format
0283_20150510_041925_Atlantis.all.mb58.gz 1.22MB Kongsberg multibeam vendor format
0284_20150510_042001_Atlantis.all.mb58.gz 6.18MB Kongsberg multibeam vendor format
0285_20150510_042309_Atlantis.all.mb58.gz 14.28MB Kongsberg multibeam vendor format
0286_20150510_043043_Atlantis.all.mb58.gz 6.98MB Kongsberg multibeam vendor format
0287_20150510_043432_Atlantis.all.mb58.gz 3.06MB Kongsberg multibeam vendor format
0288_20150510_043610_Atlantis.all.mb58.gz 5.29MB Kongsberg multibeam vendor format
0289_20150510_043859_Atlantis.all.mb58.gz 10.39MB Kongsberg multibeam vendor format
0290_20150510_044430_Atlantis.all.mb58.gz 0.88MB Kongsberg multibeam vendor format
0291_20150510_044458_Atlantis.all.mb58.gz 0.88MB Kongsberg multibeam vendor format
0292_20150510_044526_Atlantis.all.mb58.gz 2.17MB Kongsberg multibeam vendor format
0293_20150510_044634_Atlantis.all.mb58.gz 1.19MB Kongsberg multibeam vendor format
0294_20150510_044711_Atlantis.all.mb58.gz 0.87MB Kongsberg multibeam vendor format
0295_20150510_044738_Atlantis.all.mb58.gz 1.51MB Kongsberg multibeam vendor format
0296_20150510_044824_Atlantis.all.mb58.gz 1.18MB Kongsberg multibeam vendor format
0297_20150510_044901_Atlantis.all.mb58.gz 1.88MB Kongsberg multibeam vendor format
0298_20150510_044959_Atlantis.all.mb58.gz 1.18MB Kongsberg multibeam vendor format
0299_20150510_045036_Atlantis.all.mb58.gz 4.76MB Kongsberg multibeam vendor format
0300_20150510_045305_Atlantis.all.mb58.gz 3.92MB Kongsberg multibeam vendor format
9999.all.mb58.gz 2.4KB Kongsberg multibeam vendor format
9999_150509130612_tmp.all.mb58.gz 1.7KB Kongsberg multibeam vendor format
9999_150509131759_tmp.all.mb58.gz 20.69MB Kongsberg multibeam vendor format
9999_150509132804_tmp.all.mb58.gz 17.60MB Kongsberg multibeam vendor format
9999_150509132933_tmp.all.mb58.gz 2.58MB Kongsberg multibeam vendor format
9999_150509134431_tmp.all.mb58.gz 25.94MB Kongsberg multibeam vendor format
9999_150509135900_tmp.all.mb58.gz 25.45MB Kongsberg multibeam vendor format
9999_150509140552_tmp.all.mb58.gz 12.20MB Kongsberg multibeam vendor format
9999_150509140700_tmp.all.mb58.gz 1.99MB Kongsberg multibeam vendor format
9999_150509141059_tmp.all.mb58.gz 7.06MB Kongsberg multibeam vendor format
9999_150509141717_tmp.all.mb58.gz 9.91MB Kongsberg multibeam vendor format
9999_150509142941_tmp.all.mb58.gz 21.89MB Kongsberg multibeam vendor format
9999_150509143220_tmp.all.mb58.gz 4.70MB Kongsberg multibeam vendor format
9999_150509143439_tmp.all.mb58.gz 4.10MB Kongsberg multibeam vendor format
9999_150509143859_tmp.all.mb58.gz 7.63MB Kongsberg multibeam vendor format
9999_150509150234_tmp.all.mb58.gz 42.45MB Kongsberg multibeam vendor format
9999_150509151139_tmp.all.mb58.gz 17.40MB Kongsberg multibeam vendor format
9999_150509151611_tmp.all.mb58.gz 8.80MB Kongsberg multibeam vendor format
9999_150509152111_tmp.all.mb58.gz 9.84MB Kongsberg multibeam vendor format
9999_150509153821_tmp.all.mb58.gz 33.74MB Kongsberg multibeam vendor format
9999_150509154403_tmp.all.mb58.gz 11.04MB Kongsberg multibeam vendor format
9999_150509154500_tmp.all.mb58.gz 1.89MB Kongsberg multibeam vendor format
9999_150509154536_tmp.all.mb58.gz 1.19MB Kongsberg multibeam vendor format
9999_150509154614_tmp.all.mb58.gz 1.23MB Kongsberg multibeam vendor format
9999_150509154641_tmp.all.mb58.gz 0.91MB Kongsberg multibeam vendor format
9999_150509154700_tmp.all.mb58.gz 0.60MB Kongsberg multibeam vendor format
9999_150509154726_tmp.all.mb58.gz 0.86MB Kongsberg multibeam vendor format
9999_150509154924_tmp.all.mb58.gz 3.85MB Kongsberg multibeam vendor format
9999_150509155324_tmp.all.mb58.gz 7.75MB Kongsberg multibeam vendor format
9999_150509155654_tmp.all.mb58.gz 6.68MB Kongsberg multibeam vendor format
9999_150509204432_tmp.all.mb58.gz 6.69MB Kongsberg multibeam vendor format
9999_150509234152_tmp.all.mb58.gz 2.5KB Kongsberg multibeam vendor format
9999_150509234211_tmp.all.mb58.gz 0.57MB Kongsberg multibeam vendor format
9999_150510010512_tmp.all.mb58.gz 0.70MB Kongsberg multibeam vendor format
9999_150510010537_tmp.all.mb58.gz 0.52MB Kongsberg multibeam vendor format
9999_150510013533_tmp.all.mb58.gz 2.94MB Kongsberg multibeam vendor format
9999_150510013633_tmp.all.mb58.gz 1.66MB Kongsberg multibeam vendor format
9999_150510020329_tmp.all.mb58.gz 166.6KB Kongsberg multibeam vendor format
9999_150510020352_tmp.all.mb58.gz 425.7KB Kongsberg multibeam vendor format
9999_150510034459_tmp.all.mb58.gz 0.54MB Kongsberg multibeam vendor format
9999_150510045515_tmp.all.mb58.gz 262.0KB Kongsberg multibeam vendor format
9999_150510091229_tmp.all.mb58.gz 255.1KB Kongsberg multibeam vendor format
9999_150510093650_tmp.all.mb58.gz 49.16MB Kongsberg multibeam vendor format
9999_150510095428_tmp.all.mb58.gz 36.97MB Kongsberg multibeam vendor format
9999_150510095819_tmp.all.mb58.gz 7.89MB Kongsberg multibeam vendor format
9999_150510100138_tmp.all.mb58.gz 6.74MB Kongsberg multibeam vendor format
9999_150510100517_tmp.all.mb58.gz 7.38MB Kongsberg multibeam vendor format
9999_150510103700_tmp.all.mb58.gz 60.79MB Kongsberg multibeam vendor format
9999_150510134939_tmp.all.mb58.gz 91.77MB Kongsberg multibeam vendor format
9999_150510144944_tmp.all.mb58.gz 294.8KB Kongsberg multibeam vendor format
9999_150511013540_tmp.all.mb58.gz 91.0KB Kongsberg multibeam vendor format
9999_150511013604_tmp.all.mb58.gz 435.1KB Kongsberg multibeam vendor format
9999_150511021520_tmp.all.mb58.gz 0.72MB Kongsberg multibeam vendor format
9999_150511080112_tmp.all.mb58.gz 0.57MB Kongsberg multibeam vendor format
9999_150511133959_tmp.all.mb58.gz 165.1KB Kongsberg multibeam vendor format
9999_150511134020_tmp.all.mb58.gz 0.79MB Kongsberg multibeam vendor format
9999_150511134258_tmp.all.mb58.gz 12.51MB Kongsberg multibeam vendor format
9999_150511134437_tmp.all.mb58.gz 3.87MB Kongsberg multibeam vendor format
9999_150511154518_tmp.all.mb58.gz 133.9KB Kongsberg multibeam vendor format
9999_150511162933_tmp.all.mb58.gz 275.6KB Kongsberg multibeam vendor format
9999_150511193011_tmp.all.mb58.gz 87.9KB Kongsberg multibeam vendor format
9999_150511193833_tmp.all.mb58.gz 42.88MB Kongsberg multibeam vendor format
9999_150511193900_tmp.all.mb58.gz 2.34MB Kongsberg multibeam vendor format
9999_150511193936_tmp.all.mb58.gz 3.20MB Kongsberg multibeam vendor format
9999_150511194043_tmp.all.mb58.gz 5.81MB Kongsberg multibeam vendor format
9999_150511194140_tmp.all.mb58.gz 4.98MB Kongsberg multibeam vendor format
9999_150511194247_tmp.all.mb58.gz 5.85MB Kongsberg multibeam vendor format
9999_150511194435_tmp.all.mb58.gz 9.41MB Kongsberg multibeam vendor format
9999_150511194552_tmp.all.mb58.gz 6.74MB Kongsberg multibeam vendor format
9999_150511194750_tmp.all.mb58.gz 10.26MB Kongsberg multibeam vendor format
9999_150511194806_tmp.all.mb58.gz 1.46MB Kongsberg multibeam vendor format
9999_150512014211_tmp.all.mb58.gz 5.13MB Kongsberg multibeam vendor format
9999_150512023207_tmp.all.mb58.gz 0.51MB Kongsberg multibeam vendor format
9999_150512050614_tmp.all.mb58.gz 0.67MB Kongsberg multibeam vendor format
9999_150512131229_tmp.all.mb58.gz 2.6KB Kongsberg multibeam vendor format
9999_150512131543_tmp.all.mb58.gz 3.36MB Kongsberg multibeam vendor format
9999_150512134156_tmp.all.mb58.gz 52.32MB Kongsberg multibeam vendor format
9999_150512142315_tmp.all.mb58.gz 52.16MB Kongsberg multibeam vendor format
9999_150512145222_tmp.all.mb58.gz 184.3KB Kongsberg multibeam vendor format
9999_150512150339_tmp.all.mb58.gz 51.0KB Kongsberg multibeam vendor format
9999_150512150353_tmp.all.mb58.gz 0.61MB Kongsberg multibeam vendor format
9999_150512150903_tmp.all.mb58.gz 14.13MB Kongsberg multibeam vendor format
9999_150512161040_tmp.all.mb58.gz 67.06MB Kongsberg multibeam vendor format
9999_150512161622_tmp.all.mb58.gz 134.5KB Kongsberg multibeam vendor format
9999_150512162716_tmp.all.mb58.gz 50.42MB Kongsberg multibeam vendor format
9999_150512170935_tmp.all.mb58.gz 56.16MB Kongsberg multibeam vendor format
9999_150512174112_tmp.all.mb58.gz 83.9KB Kongsberg multibeam vendor format
9999_150512190330_tmp.all.mb58.gz 88.16MB Kongsberg multibeam vendor format
9999_150512195317_tmp.all.mb58.gz 2.5KB Kongsberg multibeam vendor format
9999_150512195337_tmp.all.mb58.gz 40.2KB Kongsberg multibeam vendor format
9999_150512203233_tmp.all.mb58.gz 131.5KB Kongsberg multibeam vendor format
9999_150512205519_tmp.all.mb58.gz 229.4KB Kongsberg multibeam vendor format
9999_150513000132_tmp.all.mb58.gz 44.2KB Kongsberg multibeam vendor format
9999_150513000154_tmp.all.mb58.gz 0.93MB Kongsberg multibeam vendor format
9999_150513003707_tmp.all.mb58.gz 1.82MB Kongsberg multibeam vendor format
9999_150513090105_tmp.all.mb58.gz 16.1KB Kongsberg multibeam vendor format
9999_150513091848_tmp.all.mb58.gz 132.7KB Kongsberg multibeam vendor format
9999_150513165211_tmp.all.mb58.gz 1.50MB Kongsberg multibeam vendor format
9999_150513170247_tmp.all.mb58.gz 2.34MB Kongsberg multibeam vendor format

Metadata Files: 2

Files File Size Description
AT27B_Multibeam.xml NGDC created ISO metadata
em122_bag_info.tar.gz 116.3KB Additional cruise information

Water Column Sonar Data

Water Column Sonar Data Available: WCSD Map Viewer